Latitude: N 50° 09' 49" Longitude: W 05° 11' 53" Elevation: 168m ASL

There are 24 visitors online

Adverts

<- Previous Day | Today | Next Day ->

All Data for 16 August 2018

Time
A - D
Temp
A - D
Dew Point
A - D
Humidity
A - D
Pressure
A - D
Wind
A - D
Wind Dir Gust
A - D
Rain Rate
A - D
Rain Total
00:00 16.7 16.6 99 1015.8 13.0 S 18.3 0.0 0.0
00:01 16.7 16.6 99 1015.8 10.7 S 18.3 0.0 0.0
00:02 16.7 16.6 99 1015.8 10.7 S 18.3 0.0 0.0
00:03 16.7 16.6 99 1015.8 12.1 S 18.3 0.0 0.0
00:04 16.8 16.7 99 1015.7 12.1 S 18.3 0.0 0.0
00:05 16.7 16.6 99 1015.7 13.6 E 18.3 0.0 0.0
00:06 16.7 16.6 99 1015.8 12.1 S 18.3 0.0 0.0
00:07 16.7 16.6 99 1015.7 14.5 SW 18.3 0.0 0.0
00:08 16.7 16.6 99 1015.8 12.1 SE 18.3 0.0 0.0
00:09 16.7 16.6 99 1015.8 11.4 SW 18.3 0.0 0.0
00:10 16.7 16.6 99 1015.7 12.1 S 15.9 0.0 0.0
00:11 16.7 16.6 99 1015.7 15.9 S 15.9 0.0 0.0
00:12 16.7 16.6 99 1015.7 13.0 S 15.9 0.0 0.0
00:13 16.7 16.6 99 1015.8 13.0 S 15.9 0.0 0.0
00:14 16.7 16.6 99 1015.8 15.2 SW 15.9 0.0 0.0
00:15 16.7 16.6 99 1015.9 15.9 SE 19.0 0.0 0.0
00:16 16.7 16.6 99 1015.7 13.6 S 19.0 0.0 0.0
00:17 16.7 16.6 99 1015.8 12.1 S 19.0 0.0 0.0
00:18 16.7 16.6 99 1015.6 11.4 SW 19.0 0.0 0.0
00:19 16.7 16.6 99 1015.7 15.2 SW 19.0 0.0 0.0
00:20 16.7 16.6 99 1015.6 19.7 SSW 19.7 0.0 0.0
00:21 16.7 16.6 99 1015.7 10.7 SW 19.7 0.0 0.0
00:22 16.7 16.6 99 1015.6 13.6 SW 19.7 0.0 0.0
00:23 16.7 16.6 99 1015.7 10.7 S 19.7 0.0 0.0
00:24 16.7 16.6 99 1015.7 10.7 S 19.7 0.0 0.0
00:25 16.7 16.6 99 1015.7 12.1 S 19.7 0.0 0.0
00:26 16.7 16.6 99 1015.8 12.1 S 19.7 0.0 0.0
00:27 16.7 16.6 99 1015.8 10.7 S 19.7 0.0 0.0
00:28 16.7 16.6 99 1015.6 15.2 S 19.7 0.0 0.0
00:29 16.7 16.6 99 1015.7 13.6 S 19.7 0.0 0.0
00:30 16.7 16.6 99 1015.6 15.2 SW 19.7 0.0 0.0
00:31 16.7 16.6 99 1015.6 12.1 S 15.2 0.0 0.0
00:32 16.7 16.6 99 1015.7 9.8 SW 15.2 0.0 0.0
00:33 16.7 16.6 99 1015.5 13.6 SW 15.2 0.0 0.0
00:34 16.7 16.6 99 1015.6 13.0 SW 15.2 0.0 0.0
00:35 16.7 16.6 99 1015.6 13.0 SW 15.2 0.0 0.0
00:36 16.7 16.6 99 1015.5 14.5 SE 15.2 0.0 0.0
00:37 16.7 16.6 99 1015.8 15.2 SW 15.2 0.0 0.0
00:38 16.7 16.6 99 1015.5 13.0 S 15.2 0.0 0.0
00:39 16.7 16.6 99 1015.4 14.5 S 15.2 0.0 0.0
00:40 16.7 16.6 99 1015.6 16.8 S 16.8 0.0 0.0
00:41 16.7 16.6 99 1015.4 12.1 WSW 16.8 0.0 0.0
00:42 16.7 16.6 99 1015.5 15.9 S 16.8 0.0 0.0
00:43 16.7 16.6 99 1015.7 11.4 SW 16.8 0.0 0.0
00:44 16.7 16.6 99 1015.6 11.4 SE 16.8 0.0 0.0
00:45 16.7 16.6 99 1015.5 15.2 S 16.8 0.0 0.0
00:46 16.7 16.6 99 1015.4 13.0 S 16.8 0.0 0.0
00:47 16.7 16.6 99 1015.6 13.6 SW 16.8 0.0 0.0
00:48 16.7 16.6 99 1015.5 13.0 S 16.8 0.0 0.0
00:49 16.7 16.6 99 1015.5 13.0 S 16.8 0.0 0.0
00:50 16.7 16.6 99 1015.6 12.1 S 16.8 0.0 0.0
00:51 16.7 16.6 99 1015.7 14.5 SW 15.9 0.0 0.0
00:52 16.7 16.6 99 1015.6 12.1 S 15.9 0.0 0.0
00:53 16.7 16.6 99 1015.7 15.9 S 15.9 0.0 0.0
00:54 16.7 16.6 99 1015.7 11.4 S 15.9 0.0 0.0
00:55 16.7 16.6 99 1015.6 13.6 S 15.9 0.0 0.0
00:56 16.7 16.6 99 1015.6 14.5 SE 15.9 0.0 0.0
00:57 16.7 16.6 99 1015.6 15.2 S 15.9 0.0 0.0
00:58 16.7 16.6 99 1015.5 17.4 SW 17.4 0.0 0.0
00:59 16.7 16.6 99 1015.6 13.6 SW 17.4 0.0 0.0
01:01 16.7 16.6 99 1015.6 18.3 SW 18.3 0.0 0.0
01:02 16.7 16.6 99 1015.7 18.3 SW 18.3 0.0 0.0
01:03 16.7 16.6 99 1015.6 18.3 SW 18.3 0.0 0.0
01:04 16.7 16.6 99 1015.6 18.3 SW 18.3 0.0 0.0
01:05 16.7 16.6 99 1015.5 15.2 S 18.3 0.0 0.0
01:06 16.7 16.6 99 1015.5 17.4 S 18.3 0.0 0.0
01:07 16.7 16.6 99 1015.6 12.1 S 18.3 0.0 0.0
01:08 16.7 16.6 99 1015.6 17.4 S 18.3 0.0 0.0
01:09 16.7 16.6 99 1015.7 16.8 S 18.3 0.0 0.0
01:10 16.7 16.6 99 1015.5 20.6 SE 20.6 0.0 0.0
01:11 16.7 16.6 99 1015.4 11.4 SW 20.6 0.0 0.0
01:12 16.7 16.6 99 1015.5 11.4 SE 20.6 0.0 0.0
01:13 16.7 16.6 99 1015.7 15.2 SW 20.6 0.0 0.0
01:14 16.7 16.6 99 1015.6 15.2 S 20.6 0.0 0.0
01:15 16.7 16.6 99 1015.3 14.5 SW 20.6 0.0 0.0
01:16 16.7 16.6 99 1015.5 16.8 S 20.6 0.0 0.0
01:17 16.7 16.6 99 1015.5 11.4 S 20.6 0.0 0.0
01:18 16.7 16.6 99 1015.4 19.0 S 20.6 0.0 0.0
01:19 16.7 16.6 99 1015.6 17.4 S 20.6 0.0 0.0
01:20 16.7 16.6 99 1015.3 12.1 S 19.0 0.0 0.0
01:21 16.7 16.6 99 1015.5 11.4 S 19.0 0.0 0.0
01:22 16.7 16.6 99 1015.3 10.7 S 19.0 0.0 0.0
01:23 16.7 16.6 99 1015.4 13.6 S 19.0 0.0 0.0
01:24 16.7 16.6 99 1015.4 13.6 SW 19.0 0.0 0.0
01:25 16.7 16.6 99 1015.4 13.0 SW 19.0 0.0 0.0
01:26 16.7 16.6 99 1015.3 15.9 S 19.0 0.0 0.0
01:27 16.7 16.6 99 1015.2 13.6 S 19.0 0.0 0.0
01:28 16.7 16.6 99 1015.3 15.2 S 19.0 0.0 0.0
01:29 16.7 16.6 99 1015.4 15.2 SW 18.3 0.0 0.0
01:30 16.7 16.6 99 1015.4 15.2 S 18.3 0.0 0.0
01:31 16.7 16.6 99 1015.3 14.5 SW 18.3 0.0 0.0
01:32 16.7 16.6 99 1015.2 13.0 S 18.3 0.0 0.0
01:33 16.7 16.6 99 1015.3 13.0 SW 18.3 0.0 0.0
01:34 16.7 16.6 99 1015.3 13.6 WNW 18.3 0.0 0.0
01:36 16.7 16.6 99 1015.2 13.6 S 18.3 0.0 0.0
01:37 16.7 16.6 99 1015.3 15.2 S 18.3 0.0 0.0
01:38 16.7 16.6 99 1015.0 12.1 S 18.3 0.0 0.0
01:39 16.7 16.6 99 1015.3 13.6 SW 16.8 0.0 0.0
01:40 16.7 16.6 99 1015.3 18.3 SW 18.3 0.0 0.0
01:41 16.8 16.7 99 1015.2 16.8 S 18.3 0.0 0.0
01:42 16.7 16.6 99 1015.2 14.5 SSW 18.3 0.0 0.0
01:43 16.7 16.6 99 1015.0 12.1 SSE 18.3 0.0 0.0
01:44 16.7 16.6 99 1015.0 13.6 S 18.3 0.0 0.0
01:45 16.8 16.7 99 1015.0 15.2 S 18.3 0.0 0.0
01:46 16.8 16.7 99 1015.0 18.3 SW 18.3 0.0 0.0
01:47 16.8 16.7 99 1015.1 15.2 S 18.3 0.0 0.0
01:48 16.8 16.7 99 1015.2 14.5 SW 18.3 0.0 0.0
01:49 16.8 16.7 99 1015.1 13.6 SSW 18.3 0.0 0.0
01:50 16.8 16.7 99 1015.1 15.9 SW 18.3 0.0 0.0
01:51 16.8 16.7 99 1015.0 15.9 SE 18.3 0.0 0.0
01:52 16.8 16.7 99 1015.0 15.9 SW 18.3 0.0 0.0
01:53 16.8 16.7 99 1014.9 14.5 S 18.3 0.0 0.0
01:54 16.8 16.7 99 1015.0 19.7 S 19.7 0.0 0.0
01:55 16.8 16.7 99 1014.9 17.4 S 19.7 0.0 0.0
01:56 16.8 16.7 99 1015.0 14.5 S 19.7 0.0 0.0
01:57 16.8 16.7 99 1014.9 15.2 S 19.7 0.0 0.0
01:58 16.8 16.7 99 1014.8 15.9 S 19.7 0.0 0.0
01:59 16.8 16.7 99 1014.9 16.8 S 19.7 0.0 0.0
02:00 16.8 16.7 99 1014.9 19.7 S 19.7 0.0 0.0
02:01 16.8 16.7 99 1014.9 19.7 S 19.7 0.0 0.0
02:02 16.8 16.7 99 1014.9 19.7 S 19.7 0.0 0.0
02:03 16.8 16.7 99 1014.7 19.7 S 19.7 0.0 0.0
02:04 16.8 16.7 99 1014.8 19.7 S 19.7 0.0 0.0
02:05 16.8 16.7 99 1014.8 19.7 S 19.7 0.0 0.0
02:06 16.8 16.7 99 1014.8 19.7 S 19.7 0.0 0.0
02:07 16.8 16.7 99 1014.8 13.0 S 19.7 0.0 0.0
02:08 16.8 16.7 99 1014.8 19.0 S 19.7 0.0 0.0
02:09 16.9 16.8 99 1014.6 19.7 SE 19.7 0.0 0.0
02:10 16.9 16.8 99 1014.7 18.3 S 19.7 0.0 0.0
02:11 16.8 16.7 99 1014.9 9.8 S 19.7 0.0 0.0
02:12 16.8 16.7 99 1014.8 13.0 S 19.7 0.0 0.0
02:13 16.8 16.7 99 1014.6 10.7 S 19.7 0.0 0.0
02:14 16.8 16.7 99 1014.7 12.1 SW 19.7 0.0 0.0
02:15 16.8 16.7 99 1014.7 13.6 S 19.7 0.0 0.0
02:16 16.9 16.8 99 1014.6 13.0 S 19.7 0.0 0.0
02:17 16.9 16.8 99 1014.7 9.2 S 19.7 0.0 0.0
02:18 16.8 16.7 99 1014.8 10.7 SE 19.7 0.0 0.0
02:19 16.8 16.7 99 1014.7 14.5 NW 19.7 0.0 0.0
02:21 16.9 16.8 99 1014.7 10.7 SW 19.0 0.0 0.0
02:22 16.9 16.8 99 1014.6 14.5 S 19.0 0.0 0.0
02:23 16.9 16.8 99 1014.7 16.8 SW 16.8 0.0 0.0
02:24 16.9 16.8 99 1014.7 17.4 S 17.4 0.0 0.0
02:25 16.9 16.8 99 1014.8 15.2 SSE 17.4 0.0 0.0
02:26 16.9 16.8 99 1014.8 15.9 S 17.4 0.0 0.0
02:27 16.9 16.8 99 1014.6 10.7 S 17.4 0.0 0.0
02:28 16.9 16.8 99 1014.6 13.6 S 17.4 0.0 0.0
02:29 16.9 16.8 99 1014.7 15.2 S 17.4 0.0 0.0
02:30 16.9 16.8 99 1014.6 13.0 SW 17.4 0.0 0.0
02:31 16.9 16.8 99 1014.6 17.4 S 17.4 0.0 0.0
02:32 16.9 16.8 99 1014.6 17.4 S 17.4 0.0 0.0
02:33 16.9 16.8 99 1014.7 13.0 S 17.4 0.0 0.0
02:34 16.9 16.8 99 1014.6 15.9 S 17.4 0.0 0.0
02:35 16.9 16.8 99 1014.7 19.0 S 19.0 0.0 0.0
02:36 16.9 16.8 99 1014.5 14.5 SE 19.0 0.0 0.0
02:37 16.9 16.8 99 1014.6 15.2 S 19.0 0.0 0.0
02:38 16.9 16.8 99 1014.6 13.0 SW 19.0 0.0 0.0
02:39 16.9 16.8 99 1014.5 15.9 SW 19.0 0.0 0.0
02:40 16.9 16.8 99 1014.6 15.9 S 19.0 0.0 0.0
02:41 16.9 16.8 99 1014.5 13.6 SW 19.0 0.8 0.1
02:42 16.9 16.8 99 1014.5 14.5 SW 19.0 0.8 0.1
02:43 16.9 16.8 99 1014.6 15.2 SW 19.0 0.8 0.1
02:44 16.9 16.8 99 1014.6 20.6 S 20.6 1.5 0.1
02:46 16.9 16.8 99 1014.4 15.9 S 20.6 2.3 0.3
02:47 16.9 16.8 99 1014.4 15.2 SE 20.6 3.0 0.3
02:48 16.9 16.8 99 1014.4 15.2 SE 20.6 3.0 0.3
02:49 16.9 16.8 99 1014.5 15.2 SW 20.6 2.3 0.3
02:50 16.9 16.8 99 1014.5 19.0 S 20.6 1.5 0.3
02:51 16.9 16.8 99 1014.5 19.7 S 20.6 1.5 0.4
02:52 16.9 16.8 99 1014.4 14.5 S 20.6 0.8 0.4
02:53 16.9 16.8 99 1014.5 14.5 SW 20.6 0.8 0.4
02:54 16.9 16.8 99 1014.5 13.6 W 19.7 0.8 0.4
02:55 16.9 16.8 99 1014.4 16.8 S 19.7 1.5 0.4
02:56 16.9 16.8 99 1014.4 16.8 S 19.7 0.8 0.4
02:57 16.9 16.8 99 1014.4 14.5 S 19.7 0.8 0.4
02:58 16.8 16.7 99 1014.6 13.6 WSW 19.7 0.8 0.4
02:59 16.8 16.7 99 1014.5 12.1 S 19.7 0.8 0.4
03:00 16.8 16.7 99 1014.4 13.0 WSW 19.7 0.0 0.4
03:01 16.8 16.7 99 1014.6 12.1 S 19.7 0.0 0.4
03:02 16.8 16.7 99 1014.5 12.1 S 16.8 0.0 0.4
03:03 16.8 16.7 99 1014.6 13.0 S 16.8 0.0 0.4
03:04 16.8 16.7 99 1014.5 11.4 S 16.8 0.0 0.4
03:05 16.8 16.7 99 1014.5 9.8 S 16.8 0.0 0.4
03:06 16.8 16.7 99 1014.3 10.7 SW 14.5 0.0 0.4
03:07 16.8 16.7 99 1014.5 13.0 SW 13.6 0.0 0.4
03:08 16.7 16.6 99 1014.6 10.7 S 13.6 0.8 0.5
03:10 16.7 16.6 99 1014.4 12.1 SW 13.0 0.8 0.5
03:11 16.6 16.5 99 1014.5 12.1 S 15.2 0.8 0.5
03:12 16.6 16.5 99 1014.4 12.1 SW 15.2 0.8 0.5
03:13 16.6 16.5 99 1014.5 13.6 S 15.2 0.0 0.5
03:14 16.6 16.5 99 1014.4 13.0 S 15.2 0.0 0.5
03:15 16.6 16.5 99 1014.2 12.1 WSW 15.2 0.0 0.5
03:16 16.5 16.4 99 1014.3 13.0 WNW 15.2 0.0 0.5
03:17 16.5 16.4 99 1014.4 9.8 S 15.2 0.0 0.5
03:18 16.5 16.4 99 1014.4 12.1 S 15.2 0.0 0.5
03:19 16.5 16.4 99 1014.3 12.1 SW 15.2 0.0 0.6
03:20 16.5 16.4 99 1014.3 12.1 SW 15.2 0.8 0.6
03:21 16.5 16.4 99 1014.2 10.7 S 15.2 0.8 0.6
03:22 16.4 16.3 99 1014.3 9.2 S 13.6 0.8 0.6
03:23 16.4 16.3 99 1014.3 12.1 S 13.0 0.8 0.6
03:25 16.4 16.3 99 1014.2 14.5 S 14.5 0.0 0.6
03:26 16.4 16.3 99 1014.2 10.7 S 14.5 0.0 0.6
03:27 16.4 16.3 99 1014.3 8.3 SW 14.5 0.0 0.6
03:28 16.4 16.3 99 1014.2 6.9 S 14.5 0.0 0.6
03:29 16.4 16.3 99 1014.3 6.9 SE 14.5 0.0 0.6
03:30 16.4 16.3 99 1014.3 9.8 S 14.5 0.0 0.6
03:31 16.4 16.3 99 1014.2 10.7 NW 14.5 0.0 0.6
03:32 16.4 16.3 99 1014.1 9.8 SE 14.5 0.0 0.6
03:33 16.4 16.3 99 1014.2 9.8 W 14.5 0.0 0.6
03:34 16.4 16.3 99 1014.2 9.2 NW 14.5 0.0 0.6
03:35 16.4 16.3 99 1014.2 7.6 S 14.5 0.0 0.6
03:36 16.4 16.3 99 1014.2 8.3 SW 10.7 0.0 0.6
03:37 16.4 16.3 99 1014.1 8.3 S 10.7 0.0 0.6
03:38 16.4 16.3 99 1014.1 10.7 WNW 10.7 0.0 0.6
03:39 16.4 16.3 99 1014.2 9.2 SW 10.7 0.0 0.6
03:40 16.4 16.3 99 1014.1 11.4 SW 11.4 0.0 0.6
03:41 16.4 16.3 99 1014.2 7.6 SW 11.4 0.0 0.6
03:42 16.4 16.3 99 1014.2 8.3 SW 11.4 0.0 0.6
03:43 16.4 16.3 99 1014.2 9.8 S 11.4 0.0 0.6
03:44 16.4 16.3 99 1014.1 8.3 SW 11.4 0.0 0.6
03:45 16.4 16.3 99 1014.1 9.2 SW 11.4 0.0 0.6
03:46 16.4 16.3 99 1014.3 12.1 SW 12.1 0.8 0.6
03:47 16.4 16.3 99 1014.1 12.1 SW 12.1 0.8 0.6
03:49 16.4 16.3 99 1014.1 9.8 W 12.1 0.8 0.6
03:50 16.4 16.3 99 1014.2 11.4 SW 12.1 0.8 0.6
03:52 16.4 16.3 99 1014.1 12.1 SW 12.1 0.0 0.6
03:53 16.4 16.3 99 1014.2 10.7 S 12.1 0.0 0.6
03:54 16.4 16.3 99 1014.3 10.7 WNW 12.1 0.0 0.6
03:55 16.4 16.3 99 1014.2 8.3 SW 12.1 0.0 0.6
03:57 16.4 16.3 99 1014.1 10.7 SW 12.1 0.0 0.6
03:58 16.4 16.3 99 1014.0 8.3 SW 12.1 0.0 0.6
03:59 16.4 16.3 99 1014.1 11.4 S 12.1 0.0 0.6
04:00 16.4 16.3 99 1014.0 11.4 WSW 12.1 0.0 0.6
04:01 16.4 16.3 99 1014.0 13.6 NW 13.6 0.0 0.6
04:02 16.4 16.3 99 1014.1 6.9 S 13.6 0.0 0.6
04:03 16.4 16.3 99 1014.1 13.0 S 13.6 0.0 0.6
04:05 16.4 16.3 99 1014.1 9.8 SW 13.6 0.0 0.6
04:06 16.4 16.3 99 1014.1 12.1 SW 13.6 0.0 0.6
04:07 16.4 16.3 99 1014.1 10.7 S 13.6 0.0 0.6
04:08 16.4 16.3 99 1014.1 10.7 SW 13.6 0.0 0.6
04:09 16.4 16.3 99 1014.0 10.7 S 13.6 0.0 0.6
04:10 16.4 16.3 99 1013.9 9.2 SW 13.6 0.0 0.6
04:11 16.4 16.3 99 1014.1 10.7 SSW 13.6 0.0 0.6
04:12 16.4 16.3 99 1013.9 9.8 SW 13.6 0.0 0.6
04:13 16.4 16.3 99 1013.9 7.6 SW 13.0 0.0 0.6
04:14 16.4 16.3 99 1013.9 10.7 SW 12.1 0.0 0.6
04:15 16.4 16.3 99 1013.9 9.2 S 12.1 0.0 0.6
04:16 16.4 16.3 99 1013.9 8.3 S 10.7 0.0 0.6
04:17 16.4 16.3 99 1014.0 13.0 S 13.0 0.0 0.6
04:20 16.3 16.2 99 1014.0 10.7 SW 13.0 0.0 0.6
04:21 16.3 16.2 99 1013.9 10.7 SW 13.0 0.0 0.6
04:22 16.3 16.2 99 1013.9 12.1 SW 13.0 0.0 0.6
04:23 16.3 16.2 99 1013.9 7.6 SW 13.0 0.0 0.6
04:24 16.3 16.2 99 1013.9 10.7 SW 13.0 0.0 0.6
04:25 16.3 16.2 99 1013.9 9.8 NW 13.0 0.0 0.6
04:26 16.4 16.3 99 1014.0 6.0 SW 13.0 0.0 0.6
04:27 16.3 16.2 99 1014.0 9.8 SW 12.1 0.0 0.6
04:28 16.3 16.2 99 1014.0 11.4 WSW 12.1 0.0 0.6
04:29 16.3 16.2 99 1014.0 12.1 SW 12.1 0.0 0.6
04:30 16.3 16.2 99 1014.0 9.2 SW 12.1 0.0 0.6
04:31 16.3 16.2 99 1013.9 10.7 SW 12.1 0.0 0.6
04:32 16.3 16.2 99 1013.9 7.6 W 12.1 0.0 0.6
04:33 16.3 16.2 99 1014.0 9.8 NW 12.1 0.8 0.7
04:34 16.3 16.2 99 1014.1 12.1 WSW 12.1 0.8 0.7
04:35 16.3 16.2 99 1014.0 8.3 SW 12.1 0.8 0.7
04:36 16.2 16.1 99 1013.9 6.9 SW 12.1 0.8 0.7
04:37 16.2 16.1 99 1014.0 8.3 NW 12.1 0.8 0.7
04:38 16.2 16.1 99 1014.0 7.6 SW 12.1 0.0 0.7
04:39 16.2 16.1 99 1014.1 7.6 WSW 12.1 0.0 0.7
04:40 16.2 16.1 99 1014.0 6.9 SW 12.1 0.0 0.7
04:42 16.2 16.1 99 1014.0 10.7 W 12.1 0.0 0.7
04:43 16.2 16.1 99 1014.1 7.6 W 12.1 0.0 0.7
04:44 16.2 16.1 99 1014.1 6.0 SW 12.1 0.0 0.7
04:45 16.2 16.1 99 1013.9 8.3 SW 10.7 0.0 0.7
04:46 16.2 16.1 99 1014.1 7.6 SW 10.7 0.0 0.7
04:47 16.1 16.0 99 1014.0 7.6 W 10.7 0.8 0.8
04:48 16.2 16.1 99 1014.0 9.8 SW 10.7 0.8 0.8
04:49 16.1 16.0 99 1014.1 6.0 SW 10.7 0.8 0.8
04:50 16.1 16.0 99 1014.0 5.4 SW 10.7 0.8 0.8
04:51 16.1 16.0 99 1013.8 8.3 SW 10.7 0.8 0.8
04:52 16.1 16.0 99 1014.0 8.3 W 9.8 0.8 0.8
04:53 16.1 16.0 99 1013.8 9.8 SW 9.8 0.8 0.8
04:54 16.1 16.0 99 1013.8 10.7 SW 10.7 0.8 0.8
04:55 16.1 16.0 99 1013.8 9.2 W 10.7 0.8 0.8
04:56 16.1 16.0 99 1013.8 8.3 WSW 10.7 0.8 0.8
04:57 16.1 16.0 99 1013.9 13.0 SW 13.0 0.0 0.8
04:58 16.0 15.9 99 1013.9 12.1 SW 13.0 0.0 0.8
04:59 16.0 15.9 99 1013.9 11.4 SW 13.0 0.0 0.8
05:00 16.0 15.9 99 1013.9 8.3 SW 13.0 0.8 0.9
05:01 16.0 15.9 99 1014.1 7.6 SW 13.0 0.8 0.9
05:02 16.0 15.9 99 1013.9 7.6 SW 13.0 0.8 0.9
05:03 16.0 15.9 99 1014.0 9.8 W 13.0 0.8 0.9
05:04 16.0 15.9 99 1013.9 9.8 SW 13.0 0.8 0.9
05:05 16.0 15.9 99 1013.9 12.1 WSW 13.0 0.0 0.9
05:07 16.0 15.9 99 1013.9 9.2 SE 13.0 0.8 0.9
05:08 16.0 15.9 99 1014.1 10.7 SW 12.1 0.8 0.9
05:09 16.0 15.9 99 1014.0 9.2 SW 12.1 0.8 0.9
05:10 16.0 15.9 99 1013.9 15.9 SW 15.9 0.8 0.9
05:11 15.9 15.8 99 1014.0 11.4 WNW 15.9 0.0 0.9
05:12 15.9 15.8 99 1013.9 10.7 W 15.9 0.0 0.9
05:13 15.9 15.8 99 1014.0 10.7 SW 15.9 0.0 0.9
05:14 15.9 15.8 99 1014.1 10.7 WSW 15.9 0.8 1.0
05:15 15.9 15.8 99 1014.1 9.2 W 15.9 0.8 1.0
05:16 15.9 15.8 99 1013.9 7.6 W 15.9 0.8 1.0
05:17 15.9 15.8 99 1014.0 6.9 SW 15.9 1.5 1.1
05:18 15.9 15.8 99 1013.9 7.6 SW 15.9 1.5 1.1
05:19 15.9 15.8 99 1013.8 8.3 SW 15.9 0.8 1.1
05:20 15.9 15.8 99 1013.8 9.8 NW 14.5 0.8 1.1
05:21 15.9 15.8 99 1014.0 9.8 SW 10.7 0.8 1.1
05:22 15.9 15.8 99 1013.8 11.4 NW 11.4 0.0 1.1
05:23 15.9 15.8 99 1013.9 11.4 NW 11.4 0.8 1.1
05:24 15.9 15.8 99 1013.8 7.6 SW 11.4 0.8 1.1
05:25 15.9 15.8 99 1013.9 7.6 SW 11.4 0.8 1.1
05:26 15.9 15.8 99 1013.9 7.6 SW 11.4 0.8 1.1
05:27 15.8 15.7 99 1014.0 11.4 SW 11.4 1.5 1.2
05:28 15.8 15.7 99 1013.8 11.4 W 11.4 0.8 1.2
05:30 15.8 15.7 99 1013.7 9.8 W 11.4 0.8 1.2
05:31 15.8 15.7 99 1013.7 8.3 SW 11.4 1.5 1.3
05:33 15.8 15.7 99 1013.9 9.2 W 11.4 1.5 1.3
05:34 15.8 15.7 99 1013.9 9.8 S 11.4 1.5 1.3
05:35 15.8 15.7 99 1013.9 9.2 NW 11.4 1.5 1.3
05:36 15.8 15.7 99 1013.9 9.8 SW 11.4 1.5 1.4
05:37 15.8 15.7 99 1013.8 8.3 SW 11.4 2.3 1.4
05:38 15.8 15.7 99 1013.8 7.6 SW 11.4 1.5 1.4
05:39 15.8 15.7 99 1013.8 9.2 SSW 9.8 2.3 1.5
05:40 15.7 15.6 99 1013.9 11.4 SW 11.4 3.0 1.6
05:41 15.7 15.6 99 1013.9 7.6 SW 11.4 2.3 1.6
05:42 15.7 15.6 99 1013.9 6.9 SW 11.4 2.3 1.6
05:43 15.7 15.6 99 1014.0 6.0 SW 11.4 3.0 1.7
05:44 15.7 15.6 99 1013.8 6.9 SW 11.4 2.3 1.7
05:45 15.7 15.6 99 1014.0 6.9 NW 11.4 2.3 1.8
05:46 15.7 15.6 99 1014.0 6.9 SW 11.4 3.0 1.8
05:47 15.7 15.6 99 1014.0 6.0 SW 11.4 3.0 1.9
05:48 15.7 15.6 99 1013.9 7.6 SSW 11.4 3.0 2.0
05:49 15.7 15.6 99 1013.9 6.9 SW 11.4 3.0 2.0
05:50 15.7 15.6 99 1013.9 6.9 SW 11.4 2.3 2.0
05:51 15.6 15.5 99 1014.0 8.3 SW 9.2 2.3 2.0
05:53 15.6 15.5 99 1013.8 7.6 SW 9.2 1.5 2.1
05:54 15.6 15.5 99 1013.9 6.9 W 9.2 1.5 2.1
05:55 15.6 15.5 99 1013.9 9.2 SW 9.2 3.0 2.2
05:56 15.6 15.5 99 1014.0 6.9 SW 9.2 2.3 2.2
05:57 15.6 15.5 99 1013.9 6.0 SW 9.2 1.5 2.2
05:58 15.6 15.5 99 1014.1 7.6 SW 9.2 2.3 2.3
05:59 15.6 15.5 99 1014.0 8.3 SW 9.2 3.0 2.3
06:00 15.6 15.5 99 1014.0 9.8 SW 9.8 2.3 2.5
06:01 15.5 15.4 99 1014.1 7.6 W 9.8 3.0 2.5
06:02 15.5 15.4 99 1014.0 7.6 W 9.8 3.0 2.5
06:03 15.5 15.4 99 1014.0 6.0 SW 9.8 3.0 2.5
06:04 15.5 15.4 99 1014.0 7.6 SW 9.8 2.3 2.6
06:05 15.5 15.4 99 1013.8 7.6 S 9.8 2.3 2.6
06:07 15.5 15.4 99 1014.0 5.4 SW 9.8 2.3 2.6
06:08 15.5 15.4 99 1013.9 7.6 S 9.8 1.5 2.6
06:09 15.4 15.3 99 1013.9 7.6 SW 9.8 2.3 2.7
06:10 15.4 15.3 99 1013.9 8.3 SW 9.8 1.5 2.7
06:11 15.4 15.3 99 1014.0 6.9 W 8.3 1.5 2.7
06:12 15.4 15.3 99 1013.9 5.4 SW 8.3 1.5 2.8
06:13 15.4 15.3 99 1013.9 5.4 SW 8.3 1.5 2.8
06:14 15.4 15.3 99 1013.9 7.6 SW 8.3 1.5 2.8
06:15 15.4 15.3 99 1014.0 5.4 S 8.3 1.5 2.8
06:16 15.4 15.3 99 1013.8 6.0 SW 8.3 1.5 2.8
06:18 15.4 15.3 99 1013.9 5.4 S 9.2 1.5 2.9
06:19 15.4 15.3 99 1013.9 6.0 SW 9.2 0.8 3.0
06:20 15.4 15.3 99 1013.9 6.9 W 9.2 1.5 3.0
06:21 15.3 15.2 99 1014.0 6.0 SW 9.2 1.5 3.0
06:22 15.4 15.3 99 1014.0 5.4 SSW 9.2 0.8 3.0
06:23 15.3 15.2 99 1013.8 5.4 SW 9.2 0.8 3.0
06:24 15.4 15.3 99 1014.1 8.3 WSW 9.2 1.5 3.0
06:25 15.3 15.2 99 1014.1 6.9 SW 9.2 0.8 3.0
06:26 15.4 15.3 99 1014.0 8.3 W 9.2 0.8 3.0
06:27 15.3 15.2 99 1014.1 6.9 WSW 8.3 0.8 3.0
06:28 15.3 15.2 99 1014.1 7.6 SW 8.3 0.8 3.0
06:29 15.3 15.2 99 1014.0 4.5 W 8.3 0.0 3.0
06:30 15.3 15.2 99 1014.0 5.4 SW 8.3 0.0 3.0
06:31 15.3 15.2 99 1014.0 6.9 SW 8.3 0.0 3.0
06:32 15.3 15.2 99 1014.3 7.6 SW 8.3 0.0 3.0
06:33 15.3 15.2 99 1014.3 7.6 SW 8.3 0.0 3.0
06:34 15.3 15.2 99 1014.2 4.5 SW 8.3 0.0 3.0
06:35 15.4 15.3 99 1014.2 5.4 SW 8.3 0.0 3.1
06:36 15.4 15.3 99 1014.3 5.4 NW 8.3 0.8 3.1
06:37 15.3 15.2 99 1014.3 6.0 W 7.6 0.8 3.1
06:39 15.3 15.2 99 1014.1 9.2 WSW 9.2 0.8 3.1
06:40 15.3 15.2 99 1014.1 7.6 NW 9.2 0.8 3.1
06:41 15.3 15.2 99 1014.1 6.0 WSW 9.2 0.0 3.1
06:42 15.2 15.1 99 1014.2 7.6 SW 9.2 0.0 3.1
06:43 15.2 15.1 99 1014.1 4.5 S 9.2 0.0 3.1
06:44 15.1 15.0 99 1014.0 6.0 SW 9.2 0.0 3.1
06:45 15.1 15.0 99 1014.2 4.5 WSW 9.2 0.8 3.1
06:46 15.1 15.0 99 1014.1 5.4 WSW 9.2 0.8 3.1
06:47 15.1 15.0 99 1014.1 5.4 SW 9.2 0.8 3.1
06:48 15.0 14.9 99 1014.0 6.0 WNW 9.2 0.8 3.1
06:49 15.0 14.9 99 1014.1 6.9 SW 7.6 0.8 3.1
06:50 15.0 14.9 99 1014.1 5.4 SW 7.6 0.0 3.1
06:51 15.0 14.9 99 1014.1 6.0 W 7.6 0.0 3.1
06:52 15.0 14.9 99 1014.1 3.8 W 6.9 0.8 3.2
06:53 15.0 14.9 99 1014.1 3.8 W 6.9 0.8 3.2
06:54 15.0 14.9 99 1014.1 4.5 WSW 6.9 0.8 3.2
06:56 14.9 14.8 99 1014.1 5.4 W 6.9 0.8 3.2
06:57 14.9 14.8 99 1014.1 4.5 SW 6.9 0.0 3.2
06:58 14.9 14.8 99 1014.0 3.1 SW 6.9 0.0 3.2
06:59 14.9 14.8 99 1014.2 2.2 SW 6.9 0.0 3.2
07:00 14.9 14.8 99 1014.1 3.8 W 6.0 0.0 3.2
07:01 14.9 14.8 99 1014.1 3.8 S 6.0 0.0 3.2
07:02 14.9 14.8 99 1014.2 4.5 W 5.4 0.0 3.2
07:03 14.8 14.7 99 1013.9 4.5 SW 5.4 0.0 3.2
07:04 14.8 14.7 99 1014.1 3.8 SW 5.4 0.0 3.2
07:05 14.8 14.7 99 1014.0 2.2 SW 5.4 0.0 3.2
07:06 14.8 14.7 99 1014.1 3.1 SW 4.5 0.0 3.2
07:07 14.8 14.7 99 1014.2 3.1 SW 4.5 0.0 3.2
07:08 14.8 14.7 99 1014.1 3.8 SW 4.5 0.0 3.2
07:09 14.8 14.7 99 1014.1 4.5 S 4.5 0.0 3.2
07:10 14.8 14.7 99 1014.3 3.1 WSW 4.5 0.0 3.2
07:11 14.8 14.7 99 1014.1 3.8 WSW 4.5 0.0 3.2
07:12 14.8 14.7 99 1014.3 4.5 W 4.5 0.0 3.2
07:13 14.8 14.7 99 1014.3 4.5 SW 4.5 0.0 3.2
07:14 14.8 14.7 99 1014.2 5.4 SW 5.4 0.0 3.2
07:16 14.8 14.7 99 1014.1 3.8 SW 5.4 0.8 3.3
07:17 14.7 14.6 99 1014.3 3.8 SW 5.4 0.8 3.3
07:18 14.7 14.6 99 1014.3 3.8 SW 5.4 0.8 3.3
07:19 14.7 14.6 99 1014.2 4.5 SW 5.4 0.8 3.3
07:20 14.7 14.6 99 1014.3 3.8 S 5.4 0.8 3.3
07:21 14.7 14.6 99 1014.3 3.8 S 5.4 0.0 3.3
07:22 14.7 14.6 99 1014.3 3.8 SW 5.4 0.0 3.3
07:23 14.7 14.6 99 1014.3 4.5 S 5.4 0.8 3.3
07:24 14.7 14.6 99 1014.3 3.1 S 5.4 0.8 3.3
07:25 14.7 14.6 99 1014.2 3.1 SSW 5.4 0.8 3.3
07:26 14.7 14.6 99 1014.3 3.1 SW 5.4 0.8 3.3
07:27 14.7 14.6 99 1014.3 4.5 S 5.4 0.8 3.3
07:28 14.7 14.6 99 1014.3 3.8 SW 5.4 0.0 3.3
07:29 14.7 14.6 99 1014.2 3.8 SW 5.4 0.0 3.3
07:30 14.7 14.6 99 1014.2 3.8 SW 5.4 0.0 3.3
07:31 14.7 14.6 99 1014.2 3.1 S 5.4 0.0 3.3
07:32 14.7 14.6 99 1014.2 3.1 S 4.5 0.0 3.3
07:34 14.7 14.6 99 1014.1 4.5 SW 4.5 0.0 3.3
07:35 14.6 14.5 99 1014.1 3.8 S 4.5 0.0 3.3
07:36 14.6 14.5 99 1014.3 3.8 S 4.5 0.0 3.3
07:37 14.6 14.5 99 1014.3 3.1 S 4.5 0.0 3.3
07:38 14.6 14.5 99 1014.3 2.2 SW 4.5 0.0 3.3
07:39 14.6 14.5 99 1014.3 3.8 SW 4.5 0.0 3.3
07:40 14.6 14.5 99 1014.3 3.1 S 4.5 0.0 3.3
07:41 14.6 14.5 99 1014.2 3.8 S 4.5 0.0 3.3
07:42 14.6 14.5 99 1014.1 3.1 S 4.5 0.0 3.3
07:43 14.6 14.5 99 1014.2 3.8 SW 4.5 0.0 3.3
07:44 14.6 14.5 99 1014.2 3.8 S 4.5 0.0 3.3
07:45 14.7 14.6 99 1014.3 3.8 S 4.5 0.0 3.3
07:46 14.7 14.6 99 1014.4 3.8 S 4.5 0.0 3.3
07:47 14.7 14.6 99 1014.3 3.1 S 4.5 0.0 3.3
07:48 14.7 14.6 99 1014.3 3.8 S 4.5 0.0 3.3
07:49 14.7 14.6 99 1014.3 5.4 S 5.4 0.0 3.3
07:50 14.7 14.6 99 1014.3 3.8 S 5.4 0.0 3.3
07:51 14.7 14.6 99 1014.3 3.8 SE 5.4 0.0 3.3
07:52 14.7 14.6 99 1014.4 3.1 S 5.4 0.0 3.3
07:53 14.7 14.6 99 1014.3 3.8 SE 5.4 0.0 3.3
07:55 14.8 14.7 99 1014.3 6.0 SW 6.0 0.0 3.3
07:56 14.7 14.6 99 1014.4 3.8 S 6.0 0.0 3.3
07:57 14.7 14.6 99 1014.5 4.5 S 6.0 0.0 3.3
07:58 14.8 14.7 99 1014.3 4.5 SE 6.0 0.8 3.4
07:59 14.8 14.7 99 1014.4 3.8 S 6.0 0.8 3.4
08:00 14.8 14.7 99 1014.5 3.8 S 6.0 0.8 3.4
08:01 14.8 14.7 99 1014.5 3.8 S 6.0 0.8 3.4
08:02 14.8 14.7 99 1014.4 3.8 S 6.0 0.8 3.4
08:03 14.8 14.7 99 1014.4 3.8 S 6.0 0.0 3.4
08:04 14.8 14.7 99 1014.4 3.8 S 6.0 0.0 3.4
08:05 14.8 14.7 99 1014.4 4.5 S 4.5 0.0 3.4
08:06 14.8 14.7 99 1014.5 4.5 SSW 4.5 0.0 3.4
08:07 14.9 14.8 99 1014.4 3.8 SW 4.5 0.0 3.4
08:08 14.8 14.7 99 1014.3 3.8 S 4.5 0.0 3.4
08:09 14.9 14.8 99 1014.4 5.4 S 5.4 0.0 3.4
08:10 14.9 14.8 99 1014.4 5.4 SW 5.4 0.0 3.4
08:11 14.9 14.8 99 1014.5 4.5 S 5.4 0.0 3.4
08:12 14.9 14.8 99 1014.4 3.8 S 5.4 0.0 3.4
08:13 14.8 14.7 99 1014.4 3.8 S 5.4 0.0 3.4
08:14 14.9 14.8 99 1014.4 3.8 S 5.4 0.0 3.4
08:15 14.8 14.7 99 1014.6 3.1 S 5.4 0.0 3.4
08:16 14.8 14.7 99 1014.5 3.1 S 5.4 0.0 3.4
08:17 14.9 14.8 99 1014.6 5.4 SSE 5.4 0.0 3.4
08:19 14.8 14.7 99 1014.6 4.5 S 6.0 0.0 3.4
08:20 14.8 14.7 99 1014.7 3.8 S 6.0 0.0 3.4
08:21 14.9 14.8 99 1014.6 4.5 SW 6.0 0.0 3.4
08:22 14.8 14.7 99 1014.8 4.5 SW 6.0 0.0 3.4
08:23 14.9 14.8 99 1014.6 3.8 SW 6.0 0.0 3.4
08:24 14.8 14.7 99 1014.7 5.4 SW 6.0 0.0 3.4
08:25 14.8 14.7 99 1014.8 3.8 SW 6.0 0.0 3.4
08:26 14.8 14.7 99 1014.7 3.8 SW 6.0 0.0 3.4
08:27 14.8 14.7 99 1014.6 3.1 WSW 6.0 0.0 3.4
08:28 14.9 14.8 99 1014.7 3.1 W 6.0 0.0 3.4
08:29 14.9 14.8 99 1014.6 3.8 WSW 5.4 0.0 3.4
08:30 14.9 14.8 99 1014.6 3.8 W 5.4 0.0 3.4
08:31 14.9 14.8 99 1014.8 2.2 S 5.4 0.0 3.4
08:32 14.9 14.8 99 1014.8 5.4 SW 5.4 0.0 3.4
08:33 14.9 14.8 99 1014.8 5.4 SW 5.4 0.0 3.4
08:34 14.9 14.8 99 1014.5 3.8 SW 5.4 0.0 3.4
08:35 14.9 14.8 99 1014.6 4.5 SW 5.4 0.0 3.4
08:36 14.9 14.8 99 1014.7 5.4 SW 5.4 0.0 3.4
08:37 14.9 14.8 99 1014.7 4.5 S 5.4 0.0 3.4
08:39 14.9 14.8 99 1014.7 3.8 S 5.4 0.0 3.4
08:40 14.9 14.8 99 1014.7 3.1 S 5.4 0.0 3.4
08:41 14.9 14.8 99 1014.8 3.8 SW 5.4 0.0 3.4
08:42 15.0 14.9 99 1014.8 3.8 S 5.4 0.0 3.4
08:43 15.0 14.9 99 1014.8 3.8 SW 5.4 0.0 3.4
08:44 15.0 14.9 99 1014.8 4.5 S 5.4 0.0 3.4
08:45 15.0 14.9 99 1014.8 5.4 S 5.4 0.0 3.4
08:46 15.0 14.9 99 1014.7 3.8 S 5.4 0.0 3.4
08:47 15.0 14.9 99 1014.7 3.8 S 5.4 0.0 3.4
08:48 15.0 14.9 99 1014.7 3.8 SW 5.4 0.0 3.4
08:49 15.0 14.9 99 1014.8 4.5 SW 5.4 0.0 3.4
08:50 15.0 14.9 99 1014.8 3.8 SW 5.4 0.0 3.4
08:51 15.0 14.9 99 1014.8 3.8 SE 5.4 0.0 3.4
08:52 15.0 14.9 99 1014.8 4.5 WSW 5.4 0.0 3.4
08:53 15.0 14.9 99 1014.8 5.4 S 5.4 0.0 3.4
08:54 15.0 14.9 99 1014.8 6.9 S 6.9 0.0 3.4
08:55 15.0 14.9 99 1015.0 6.0 S 6.9 0.0 3.4
08:56 15.1 15.0 99 1014.8 6.0 SW 6.9 0.0 3.4
08:57 15.1 15.0 99 1014.9 5.4 S 6.9 0.0 3.4
08:58 15.1 15.0 99 1014.8 3.8 S 6.9 0.0 3.4
09:00 15.1 15.0 99 1014.9 3.8 S 6.9 0.0 3.4
09:01 15.1 15.0 99 1014.9 5.4 SW 6.9 0.0 3.4
09:02 15.1 15.0 99 1014.8 5.4 S 6.9 0.0 3.4
09:03 15.1 15.0 99 1014.8 5.4 S 6.9 0.0 3.4
09:04 15.2 15.1 99 1014.6 6.0 SW 6.9 0.0 3.4
09:05 15.2 15.1 99 1014.8 4.5 SW 6.0 0.0 3.4
09:06 15.2 15.1 99 1014.8 6.9 SW 6.9 0.0 3.4
09:07 15.2 15.1 99 1014.8 4.5 S 6.9 0.0 3.4
09:08 15.2 15.1 99 1014.8 4.5 SW 6.9 0.0 3.4
09:09 15.2 15.1 99 1014.9 5.4 SW 6.9 0.0 3.4
09:11 15.3 15.2 99 1014.8 4.5 S 6.9 0.0 3.4
09:12 15.3 15.2 99 1014.8 4.5 S 6.9 0.0 3.4
09:13 15.3 15.2 99 1014.7 5.4 SW 6.9 0.0 3.4
09:14 15.4 15.3 99 1014.8 5.4 SW 6.9 0.0 3.4
09:15 15.4 15.3 99 1014.9 4.5 W 6.9 0.0 3.4
09:16 15.4 15.3 99 1014.9 6.9 SW 6.9 0.0 3.4
09:17 15.5 15.4 99 1014.8 6.0 SW 6.9 0.0 3.4
09:18 15.5 15.4 99 1015.0 4.5 S 6.9 0.0 3.4
09:19 15.5 15.4 99 1014.8 3.8 SW 6.9 0.0 3.4
09:20 15.5 15.4 99 1014.9 4.5 SW 6.9 0.0 3.4
09:21 15.5 15.4 99 1014.9 4.5 SW 6.9 0.0 3.4
09:22 15.5 15.4 99 1014.9 4.5 NW 6.9 0.0 3.4
09:23 15.5 15.4 99 1015.0 6.0 S 6.9 0.0 3.4
09:24 15.6 15.5 99 1014.9 8.3 W 8.3 0.0 3.4
09:25 15.6 15.5 99 1015.0 9.8 SW 9.8 0.0 3.4
09:27 15.6 15.5 99 1015.0 8.3 W 9.8 0.0 3.4
09:28 15.6 15.5 99 1014.9 6.0 S 9.8 0.0 3.4
09:29 15.6 15.5 99 1015.0 6.9 SSW 9.8 0.0 3.4
09:30 15.6 15.5 99 1014.9 6.0 SW 9.8 0.0 3.4
09:31 15.6 15.5 99 1015.0 8.3 SW 9.8 0.0 3.4
09:32 15.6 15.5 99 1014.9 9.2 NW 9.8 0.0 3.4
09:33 15.6 15.5 99 1014.9 9.2 NW 9.8 0.0 3.4
09:34 15.6 15.5 99 1014.9 6.0 SW 9.8 0.0 3.4
09:35 15.6 15.5 99 1015.0 8.3 SW 9.2 0.0 3.4
09:36 15.6 15.5 99 1015.0 6.0 SW 9.2 0.0 3.4
09:37 15.6 15.5 99 1015.0 6.9 SW 9.2 0.0 3.4
09:38 15.6 15.5 99 1015.1 6.9 W 9.2 0.0 3.4
09:39 15.6 15.5 99 1014.8 6.9 SW 9.2 0.0 3.4
09:40 15.6 15.5 99 1014.9 4.5 SW 9.2 0.0 3.4
09:41 15.7 15.6 99 1015.0 6.0 S 9.2 0.0 3.4
09:42 15.7 15.6 99 1015.0 9.2 S 9.2 0.0 3.4
09:43 15.7 15.6 99 1015.0 4.5 S 9.2 0.0 3.4
09:44 15.7 15.6 99 1015.1 6.0 W 9.2 0.0 3.4
09:45 15.7 15.6 99 1014.9 5.4 S 9.2 0.0 3.4
09:46 15.8 15.7 99 1014.9 6.9 WSW 9.2 0.0 3.4
09:47 15.8 15.7 99 1015.0 7.6 NW 9.2 0.0 3.4
09:49 15.9 15.8 99 1015.1 6.0 W 9.2 0.0 3.4
09:50 15.9 15.8 99 1015.0 7.6 SSW 9.2 0.0 3.4
09:51 15.9 15.8 99 1015.1 7.6 S 9.2 0.0 3.4
09:52 15.9 15.8 99 1015.1 6.9 SW 9.2 0.0 3.4
09:53 15.9 15.8 99 1015.1 10.7 SW 10.7 0.0 3.4
09:54 15.9 15.8 99 1015.1 8.3 S 10.7 0.0 3.4
09:55 15.9 15.8 99 1015.1 6.9 W 10.7 0.0 3.4
09:56 15.9 15.8 99 1015.0 7.6 SW 10.7 0.0 3.4
09:57 15.9 15.8 99 1014.9 10.7 SW 10.7 0.0 3.4
09:58 15.9 15.8 99 1015.1 10.7 SW 10.7 0.0 3.4
09:59 15.9 15.8 99 1015.1 8.3 SW 10.7 0.0 3.4
10:00 15.9 15.8 99 1015.0 9.2 SW 10.7 0.0 3.4
10:01 15.9 15.8 99 1015.0 9.8 S 10.7 0.0 3.4
10:02 15.9 15.8 99 1015.0 9.2 NE 10.7 0.0 3.4
10:03 15.9 15.8 99 1015.1 9.2 NE 10.7 0.0 3.4
10:04 16.0 15.9 99 1015.1 6.9 NW 10.7 0.0 3.4
10:05 16.0 15.9 99 1015.1 11.4 WSW 11.4 0.0 3.4
10:06 16.0 15.9 99 1015.1 11.4 SW 11.4 0.0 3.4
10:08 16.0 15.9 99 1015.1 7.6 N 11.4 0.0 3.4
10:09 16.0 15.9 99 1015.4 12.1 N 12.1 0.0 3.4
10:10 16.0 15.9 99 1015.2 10.7 W 12.1 0.0 3.4
10:11 16.0 15.9 99 1015.3 10.7 WNW 12.1 0.0 3.4
10:12 15.9 15.8 99 1015.3 9.8 NW 12.1 0.0 3.4
10:13 15.9 15.8 99 1015.3 9.8 NW 12.1 0.0 3.4
10:14 15.9 15.8 99 1015.3 9.8 SW 12.1 0.0 3.4
10:15 15.9 15.8 99 1015.3 10.7 SW 12.1 0.0 3.4
10:16 15.9 15.8 99 1015.2 9.8 NW 12.1 0.0 3.4
10:17 15.9 15.8 99 1015.3 11.4 NW 12.1 0.0 3.4
10:18 15.8 15.7 99 1015.2 11.4 NW 12.1 0.0 3.4
10:19 15.8 15.7 99 1015.3 6.0 SW 12.1 0.0 3.4
10:20 15.8 15.7 99 1015.5 9.8 NW 12.1 0.0 3.4
10:21 15.8 15.7 99 1015.5 9.8 NW 12.1 0.0 3.4
10:22 15.9 15.8 99 1015.3 11.4 WNW 12.1 0.0 3.4
10:23 15.9 15.8 99 1015.2 10.7 NW 12.1 0.0 3.4
10:24 15.9 15.8 99 1015.2 11.4 NW 11.4 0.0 3.4
10:25 15.9 15.8 99 1015.3 8.3 W 11.4 0.0 3.4
10:27 15.9 15.8 99 1015.3 11.4 WNW 11.4 0.0 3.4
10:28 15.9 15.8 99 1015.2 11.4 NW 11.4 0.0 3.4
10:29 15.9 15.8 99 1015.2 12.1 NW 12.1 0.0 3.4
10:30 15.9 15.8 99 1015.3 10.7 W 12.1 0.0 3.4
10:31 15.9 15.8 99 1015.4 11.4 SW 12.1 0.0 3.4
10:32 15.9 15.8 99 1015.5 4.5 E 13.6 0.0 3.4
10:33 15.9 15.8 99 1015.5 4.5 E 13.6 0.0 3.4
10:34 15.9 15.8 99 1015.3 9.8 NW 13.6 0.0 3.4
10:35 15.9 15.8 99 1015.4 9.8 W 13.6 0.0 3.4
10:36 15.9 15.8 99 1015.5 9.2 WNW 13.6 0.0 3.4
10:37 15.9 15.8 99 1015.3 8.3 NW 13.6 0.0 3.4
10:38 16.0 15.9 99 1015.4 8.3 NW 13.6 0.0 3.4
10:39 16.0 15.9 99 1015.4 11.4 WSW 13.6 0.0 3.4
10:40 16.0 15.9 99 1015.3 11.4 W 13.6 0.0 3.4
10:41 16.0 15.9 99 1015.5 9.8 WSW 13.6 0.0 3.4
10:42 16.0 15.9 99 1015.5 9.2 NW 13.6 0.0 3.4
10:43 16.0 15.9 99 1015.4 9.2 W 11.4 0.0 3.4
10:45 16.1 16.0 99 1015.4 8.3 SSW 11.4 0.0 3.4
10:46 16.2 16.1 99 1015.4 6.9 NW 11.4 0.0 3.4
10:47 16.3 16.2 99 1015.4 9.8 NW 11.4 0.0 3.4
10:48 16.3 16.2 99 1015.6 7.6 SW 11.4 0.0 3.4
10:49 16.3 16.2 99 1015.4 9.2 S 11.4 0.0 3.4
10:50 16.4 16.1 98 1015.4 9.2 SW 11.4 0.0 3.4
10:52 16.4 15.9 97 1015.5 9.2 NW 9.8 0.0 3.4
10:53 16.5 15.9 96 1015.5 10.7 NW 10.7 0.0 3.4
10:54 16.5 15.7 95 1015.4 9.2 S 10.7 0.0 3.4
10:55 16.5 15.7 95 1015.4 6.0 W 10.7 0.0 3.4
10:56 16.6 15.8 95 1015.6 7.6 SW 10.7 0.0 3.4
10:57 16.6 15.8 95 1015.5 8.3 S 10.7 0.0 3.4
10:58 16.6 15.8 95 1015.5 8.3 S 10.7 0.0 3.4
10:59 16.7 15.7 94 1015.4 9.8 SW 10.7 0.0 3.4
11:00 16.6 15.1 91 1015.4 9.8 NNW 11.4 0.0 3.4
11:01 16.6 15.1 91 1015.5 6.9 NW 11.4 0.0 3.4
11:02 16.6 15.0 90 1015.6 12.1 NW 12.1 0.0 3.4
11:03 16.6 15.0 90 1015.6 12.1 NW 12.1 0.0 3.4
11:04 16.6 14.8 89 1015.5 9.2 SW 12.1 0.0 3.4
11:05 16.6 14.8 89 1015.5 10.7 SW 12.1 0.0 3.4
11:06 16.6 14.8 89 1015.5 12.1 SW 12.1 0.0 3.4
11:07 16.6 14.6 88 1015.6 10.7 SW 12.1 0.0 3.4
11:08 16.6 14.6 88 1015.6 9.2 W 12.1 0.0 3.4
11:09 16.6 14.4 87 1015.5 9.8 WNW 12.1 0.0 3.4
11:10 16.6 14.4 87 1015.4 7.6 NW 12.1 0.0 3.4
11:12 16.8 14.6 87 1015.4 8.3 NW 12.1 0.0 3.4
11:13 16.8 14.6 87 1015.6 11.4 NW 12.1 0.0 3.4
11:14 16.9 14.7 87 1015.5 9.2 NW 12.1 0.0 3.4
11:15 16.9 14.6 86 1015.6 9.2 SW 12.1 0.0 3.4
11:16 17.0 14.7 86 1015.7 9.2 NW 11.4 0.0 3.4
11:17 17.0 14.7 86 1015.6 13.0 W 13.0 0.0 3.4
11:18 17.1 14.9 87 1015.6 9.2 NW 13.0 0.0 3.4
11:19 17.1 14.9 87 1015.6 9.2 W 13.0 0.0 3.4
11:20 17.1 14.6 85 1015.6 9.2 WSW 13.0 0.0 3.4
11:21 17.1 14.4 84 1015.6 10.7 N 13.0 0.0 3.4
11:22 17.1 14.4 84 1015.6 9.8 NW 13.0 0.0 3.4
11:23 17.2 14.3 83 1015.7 11.4 NW 13.0 0.0 3.4
11:24 17.2 14.3 83 1015.6 9.2 W 13.0 0.0 3.4
11:25 17.2 14.3 83 1015.6 9.2 NW 13.0 0.0 3.4
11:26 17.2 14.3 83 1015.8 6.0 W 13.0 0.0 3.4
11:27 17.1 14.4 84 1015.6 11.4 NW 11.4 0.0 3.4
11:28 17.1 14.2 83 1015.5 9.2 NW 11.4 0.0 3.4
11:29 17.1 14.0 82 1015.8 9.2 W 11.4 0.0 3.4
11:30 17.0 13.9 82 1015.7 9.8 SW 11.4 0.0 3.4
11:31 17.0 13.9 82 1015.8 10.7 W 11.4 0.0 3.4
11:33 17.0 13.7 81 1015.8 10.7 SW 13.6 0.0 3.4
11:34 17.1 14.0 82 1015.8 13.0 WSW 13.6 0.0 3.4
11:35 17.1 13.8 81 1015.8 10.7 W 13.6 0.0 3.4
11:36 17.1 13.6 80 1015.8 14.5 SW 14.5 0.0 3.4
11:37 17.1 13.8 81 1015.7 9.8 SW 14.5 0.0 3.4
11:38 17.2 14.1 82 1015.8 11.4 SW 14.5 0.0 3.4
11:39 17.2 14.1 82 1015.7 12.1 SSW 14.5 0.0 3.4
11:40 17.3 14.0 81 1015.7 10.7 NW 14.5 0.0 3.4
11:41 17.3 14.0 81 1015.7 10.7 SW 14.5 0.0 3.4
11:42 17.3 14.0 81 1015.8 14.5 NW 14.5 0.0 3.4
11:43 17.3 14.2 82 1015.7 13.6 W 14.5 0.0 3.4
11:44 17.3 14.2 82 1015.8 11.4 W 14.5 0.0 3.4
11:45 17.2 13.9 81 1015.9 12.1 NW 14.5 0.0 3.4
11:46 17.2 13.9 81 1015.8 9.8 NW 14.5 0.0 3.4
11:47 17.1 13.8 81 1015.8 5.4 SW 14.5 0.0 3.4
11:48 17.1 14.0 82 1016.0 9.8 S 14.5 0.0 3.4
11:49 17.1 14.0 82 1015.8 12.1 S 14.5 0.0 3.4
11:50 17.1 13.8 81 1015.9 12.1 NW 14.5 0.0 3.4
11:51 17.1 13.8 81 1015.9 8.3 WNW 14.5 0.0 3.4
11:52 17.1 13.8 81 1015.9 6.9 NW 14.5 0.0 3.4
11:54 17.0 13.9 82 1016.0 9.2 S 13.0 0.0 3.4
11:55 17.0 13.7 81 1015.9 11.4 SW 13.0 0.0 3.4
11:56 17.1 13.8 81 1015.8 8.3 NW 13.0 0.0 3.4
11:57 17.2 14.1 82 1015.8 10.7 W 13.0 0.0 3.4
11:58 17.3 14.2 82 1015.8 11.4 NW 13.0 0.0 3.4
11:59 17.4 14.1 81 1015.7 13.6 SW 13.6 0.0 3.4
12:00 17.5 14.0 80 1015.7 11.4 NW 13.6 0.0 3.4
12:01 17.5 13.8 79 1015.9 13.0 NW 13.6 0.0 3.4
12:02 17.5 13.8 79 1015.7 12.1 W 13.6 0.0 3.4
12:03 17.5 13.8 79 1015.9 12.1 W 13.6 0.0 3.4
12:04 17.5 13.8 79 1015.7 7.6 W 13.6 0.0 3.4
12:05 17.5 13.8 79 1015.8 9.2 SW 13.6 0.0 3.4
12:06 17.5 13.8 79 1015.8 9.8 SW 13.6 0.0 3.4
12:07 17.6 13.7 78 1015.8 13.6 WSW 13.6 0.0 3.4
12:08 17.6 13.7 78 1015.7 9.8 NW 13.6 0.0 3.4
12:09 17.6 13.7 78 1015.8 8.3 NE 13.6 0.0 3.4
12:10 17.6 13.7 78 1015.9 8.3 W 13.6 0.0 3.4
12:11 17.6 13.7 78 1015.9 9.2 E 13.6 0.0 3.4
12:13 17.6 13.9 79 1015.9 11.4 NW 13.6 0.0 3.4
12:14 17.7 13.8 78 1015.9 12.1 NW 13.6 0.0 3.4
12:15 17.7 14.0 79 1015.8 10.7 SW 13.6 0.0 3.4
12:16 17.8 13.9 78 1015.9 15.2 SW 15.2 0.0 3.4
12:17 17.8 13.7 77 1016.1 8.3 S 15.2 0.0 3.4
12:18 17.8 13.7 77 1015.9 11.4 W 15.2 0.0 3.4
12:19 17.8 13.7 77 1016.1 9.8 SW 15.2 0.0 3.4
12:20 17.9 13.6 76 1016.0 12.1 NW 15.2 0.0 3.4
12:21 17.8 13.5 76 1016.0 10.7 W 15.2 0.0 3.4
12:22 17.8 13.5 76 1016.1 9.2 NW 15.2 0.0 3.4
12:23 17.8 13.5 76 1016.0 9.8 N 15.2 0.0 3.4
12:24 17.7 13.6 77 1016.0 13.0 W 15.2 0.0 3.4
12:25 17.7 13.6 77 1016.0 13.0 W 15.2 0.0 3.4
12:26 17.7 13.6 77 1016.0 7.6 SW 15.2 0.0 3.4
12:27 17.7 13.6 77 1016.1 13.6 SW 13.6 0.0 3.4
12:28 17.6 13.5 77 1016.1 10.7 NW 13.6 0.0 3.4
12:29 17.6 13.5 77 1016.1 9.8 WSW 13.6 0.0 3.4
12:30 17.5 13.4 77 1016.1 9.8 WSW 13.6 0.0 3.4
12:32 17.4 13.7 79 1016.1 10.7 NW 13.6 0.0 3.4
12:33 17.5 13.6 78 1016.0 11.4 WSW 13.6 0.0 3.4
12:34 17.5 13.6 78 1016.1 12.1 SW 13.6 0.0 3.4
12:35 17.6 13.7 78 1016.0 13.0 SW 13.6 0.0 3.4
12:36 17.6 13.7 78 1016.1 9.8 SW 13.6 0.0 3.4
12:37 17.6 13.7 78 1016.0 12.1 SW 13.0 0.0 3.4
12:38 17.5 13.6 78 1016.0 9.2 S 13.0 0.0 3.4
12:39 17.5 13.4 77 1016.0 11.4 S 13.0 0.0 3.4
12:40 17.4 13.1 76 1016.1 11.4 W 13.0 0.0 3.4
12:41 17.4 13.3 77 1016.0 9.8 SW 13.0 0.0 3.4
12:42 17.4 13.3 77 1016.1 11.4 NW 13.0 0.0 3.4
12:43 17.4 13.1 76 1016.2 9.8 W 13.0 0.0 3.4
12:44 17.4 12.9 75 1016.1 9.8 E 13.0 0.0 3.4
12:45 17.4 12.9 75 1016.1 9.8 E 13.0 0.0 3.4
12:46 17.4 13.1 76 1016.0 9.2 WNW 13.0 0.0 3.4
12:47 17.5 13.2 76 1016.0 9.2 N 13.0 0.0 3.4
12:48 17.5 13.2 76 1016.0 13.0 SW 13.0 0.0 3.4
12:50 17.6 13.3 76 1016.1 12.1 W 14.5 0.0 3.4
12:51 17.6 13.5 77 1016.1 9.8 SW 14.5 0.0 3.4
12:52 17.7 13.8 78 1016.0 13.6 SW 14.5 0.0 3.4
12:53 17.8 13.7 77 1015.9 9.2 WSW 14.5 0.0 3.4
12:54 17.9 13.6 76 1016.0 11.4 E 14.5 0.0 3.4
12:55 17.9 13.8 77 1015.9 9.8 WSW 14.5 0.0 3.4
12:56 18.1 14.0 77 1016.0 6.9 WNW 14.5 0.0 3.4
12:57 18.2 14.1 77 1016.0 6.9 W 14.5 0.0 3.4
12:58 18.3 14.2 77 1016.1 8.3 SW 14.5 0.0 3.4
12:59 18.4 14.1 76 1016.1 13.6 WSW 14.5 0.0 3.4
13:00 18.4 13.9 75 1016.1 9.2 W 13.6 0.0 3.4
13:01 18.5 14.0 75 1016.1 10.7 SW 13.6 0.0 3.4
13:02 18.7 14.2 75 1016.1 7.6 SW 13.6 0.0 3.4
13:03 18.7 14.2 75 1016.0 7.6 SW 13.6 0.0 3.4
13:04 18.7 14.2 75 1016.1 7.6 SW 13.6 0.0 3.4
13:05 18.7 14.0 74 1016.1 15.2 SW 15.2 0.0 3.4
13:06 18.6 13.7 73 1016.1 11.4 SW 15.2 0.0 3.4
13:07 18.6 13.5 72 1016.0 8.3 SW 15.2 0.0 3.4
13:08 18.6 13.5 72 1016.1 13.0 W 15.2 0.0 3.4
13:09 18.5 13.4 72 1016.0 13.0 NW 15.2 0.0 3.4
13:10 18.4 13.3 72 1016.0 11.4 SW 15.2 0.0 3.4
13:11 18.4 13.3 72 1016.1 13.6 SW 15.2 0.0 3.4
13:12 18.3 13.2 72 1016.1 8.3 SW 15.2 0.0 3.4
13:14 18.2 13.1 72 1016.1 10.7 NW 15.2 0.0 3.4
13:15 18.1 13.2 73 1016.0 14.5 NW 15.2 0.0 3.4
13:16 18.1 13.2 73 1016.0 10.7 NW 14.5 0.0 3.4
13:17 18.1 13.2 73 1016.2 9.2 SW 14.5 0.0 3.4
13:18 17.9 13.0 73 1016.0 12.1 W 14.5 0.0 3.4
13:19 17.9 13.0 73 1016.2 9.2 W 14.5 0.0 3.4
13:20 17.7 13.2 75 1016.0 7.6 NW 14.5 0.0 3.4
13:21 17.8 13.3 75 1016.1 7.6 N 14.5 0.0 3.4
13:22 17.8 13.5 76 1016.1 11.4 NW 14.5 0.0 3.4
13:23 17.9 13.4 75 1016.0 12.1 SW 14.5 0.0 3.4
13:24 18.0 13.5 75 1016.2 9.8 NW 14.5 0.0 3.4
13:25 18.0 13.3 74 1016.0 11.4 W 13.0 0.0 3.4
13:26 18.0 13.3 74 1016.0 12.1 WNW 13.0 0.0 3.4
13:27 18.0 13.1 73 1016.0 12.1 NE 13.0 0.0 3.4
13:28 18.1 13.4 74 1016.0 13.0 SW 13.0 0.0 3.4
13:29 18.1 13.4 74 1016.1 13.6 SW 13.6 0.0 3.4
13:30 18.2 13.7 75 1016.0 9.2 NW 13.6 0.0 3.4
13:31 18.2 13.5 74 1016.1 11.4 NW 13.6 0.0 3.4
13:32 18.3 13.6 74 1016.1 13.0 NW 13.6 0.0 3.4
13:34 18.4 13.1 71 1016.1 11.4 NW 13.6 0.0 3.4
13:35 18.4 13.3 72 1016.2 13.0 NW 13.6 0.0 3.4
13:36 18.4 13.3 72 1016.2 9.8 W 13.6 0.0 3.4
13:37 18.4 13.1 71 1016.1 11.4 NW 13.6 0.0 3.4
13:38 18.7 13.3 71 1016.2 10.7 NW 13.6 0.0 3.4
13:39 18.6 13.5 72 1016.0 11.4 W 13.0 0.0 3.4
13:40 18.6 13.2 71 1016.2 13.6 SW 13.6 0.0 3.4
13:41 18.5 13.2 71 1016.2 13.6 SW 13.6 0.0 3.4
13:42 18.4 12.8 70 1016.0 10.7 SW 13.6 0.0 3.4
13:43 18.3 12.7 70 1016.0 11.4 WSW 16.8 0.0 3.4
13:44 18.2 12.9 71 1016.0 11.4 N 16.8 0.0 3.4
13:45 18.2 13.1 72 1016.0 6.9 N 16.8 0.0 3.4
13:46 18.2 12.9 71 1016.0 11.4 N 16.8 0.0 3.4
13:47 18.2 12.9 71 1016.0 9.2 W 16.8 0.0 3.4
13:48 18.2 12.9 71 1016.0 9.2 W 16.8 0.0 3.4
13:49 18.2 12.9 71 1015.9 13.6 NW 16.8 0.0 3.4
13:50 18.3 13.0 71 1016.2 15.2 SW 16.8 0.0 3.4
13:51 18.3 13.0 71 1016.2 12.1 SW 16.8 0.0 3.4
13:52 18.3 13.0 71 1016.2 9.8 SSW 16.8 0.0 3.4
13:53 18.4 13.3 72 1016.2 11.4 S 16.8 0.0 3.4
13:55 18.5 12.9 70 1016.2 10.7 NW 15.2 0.0 3.4
13:56 18.5 12.9 70 1016.3 10.7 W 15.2 0.0 3.4
13:57 18.7 13.1 70 1016.3 9.2 W 15.2 0.0 3.4
13:58 18.5 12.9 70 1016.2 11.4 WSW 15.2 0.0 3.4
14:00 18.6 13.0 70 1016.3 11.4 SW 15.2 0.0 3.4
14:01 18.6 12.6 68 1016.4 18.3 NW 18.3 0.0 3.4
14:02 18.6 12.8 69 1016.4 12.1 WSW 18.3 0.0 3.4
14:03 18.6 12.8 69 1016.3 12.1 WSW 18.3 0.0 3.4
14:04 18.6 12.8 69 1016.4 10.7 SW 18.3 0.0 3.4
14:05 18.7 13.1 70 1016.3 8.3 SW 18.3 0.0 3.4
14:06 18.7 13.1 70 1016.4 9.2 SW 18.3 0.0 3.4
14:07 18.9 13.5 71 1016.2 9.8 NW 18.3 0.0 3.4
14:08 18.9 13.1 69 1016.4 13.0 S 18.3 0.0 3.4
14:09 18.9 13.1 69 1016.4 13.6 W 18.3 0.0 3.4
14:10 19.0 13.4 70 1016.3 9.8 SE 18.3 0.0 3.4
14:11 19.0 13.4 70 1016.3 9.2 W 18.3 0.0 3.4
14:12 19.1 13.3 69 1016.2 15.9 SW 15.9 0.0 3.4
14:13 19.1 13.1 68 1016.4 13.0 W 15.9 0.0 3.4
14:14 19.0 12.7 67 1016.3 11.4 NW 15.9 0.0 3.4
14:15 19.0 12.7 67 1016.2 11.4 NW 15.9 0.0 3.4
14:17 19.0 13.0 68 1016.2 12.1 SW 15.9 0.0 3.4
14:18 19.0 13.0 68 1016.4 9.8 SW 15.9 0.0 3.4
14:19 19.1 13.3 69 1016.4 9.2 SW 15.9 0.0 3.4
14:20 19.1 13.3 69 1016.4 8.3 NE 15.9 0.0 3.4
14:21 19.2 13.2 68 1016.4 10.7 SW 15.9 0.0 3.4
14:22 19.2 12.9 67 1016.2 12.1 S 13.0 0.0 3.4
14:23 19.2 13.2 68 1016.5 8.3 SW 13.0 0.0 3.4
14:24 19.2 12.9 67 1016.5 15.9 NW 15.9 0.0 3.4
14:25 19.2 12.5 65 1016.5 13.6 SW 15.9 0.0 3.4
14:26 19.1 12.4 65 1016.6 13.0 W 15.9 0.0 3.4
14:27 19.0 12.5 66 1016.4 7.6 W 15.9 0.0 3.4
14:28 19.0 12.7 67 1016.5 7.6 W 15.9 0.0 3.4
14:29 19.0 12.7 67 1016.5 7.6 W 15.9 0.0 3.4
14:30 19.0 12.3 65 1016.4 9.8 WSW 15.9 0.0 3.4
14:31 19.0 12.5 66 1016.4 14.5 SW 15.9 0.0 3.4
14:32 19.0 12.5 66 1016.5 15.9 NW 15.9 0.0 3.4
14:33 19.0 12.5 66 1016.3 9.8 NW 15.9 0.0 3.4
14:35 18.9 12.6 67 1016.6 10.7 NW 15.9 0.0 3.4
14:36 18.9 12.6 67 1016.6 15.9 SW 15.9 0.0 3.4
14:37 18.9 12.4 66 1016.4 14.5 W 15.9 0.0 3.4
14:38 18.8 12.3 66 1016.5 15.2 SW 15.9 0.0 3.4
14:39 18.8 12.6 67 1016.6 12.1 WSW 15.9 0.0 3.4
14:40 18.7 12.5 67 1016.4 13.0 W 15.9 0.0 3.4
14:41 18.7 12.7 68 1016.5 14.5 WNW 15.9 0.0 3.4
14:42 18.6 12.6 68 1016.5 9.8 NW 15.9 0.0 3.4
14:43 18.7 12.9 69 1016.5 15.2 W 15.9 0.0 3.4
14:44 18.6 12.6 68 1016.7 15.2 WSW 15.9 0.0 3.4
14:45 18.6 12.8 69 1016.7 17.4 WSW 17.4 0.0 3.4
14:46 18.7 12.7 68 1016.4 14.5 NW 17.4 0.0 3.4
14:47 18.7 12.9 69 1016.6 15.9 S 17.4 0.0 3.4
14:48 18.8 13.0 69 1016.6 14.5 SW 17.4 0.0 3.4
14:49 19.1 13.5 70 1016.5 8.3 NW 17.4 0.0 3.4
14:50 18.9 13.1 69 1016.6 15.9 W 17.4 0.0 3.4
14:51 18.9 12.9 68 1016.7 13.0 SW 17.4 0.0 3.4
14:52 18.9 12.6 67 1016.5 10.7 NW 17.4 0.0 3.4
14:53 19.0 13.0 68 1016.6 9.2 W 17.4 0.0 3.4
14:54 18.9 12.9 68 1016.7 11.4 SW 17.4 0.0 3.4
14:55 19.0 13.0 68 1016.5 9.8 W 17.4 0.0 3.4
14:56 18.9 12.9 68 1016.7 10.7 SW 15.9 0.0 3.4
14:57 18.9 12.9 68 1016.6 9.2 NW 15.9 0.0 3.4
14:58 19.0 13.0 68 1016.5 14.5 SW 15.9 0.0 3.4
15:00 19.0 13.0 68 1016.8 14.5 SW 15.9 0.0 3.4
15:01 19.1 13.1 68 1016.7 9.8 NW 15.9 0.0 3.4
15:02 19.1 13.1 68 1016.8 13.0 W 15.9 0.0 3.4
15:03 19.1 13.1 68 1016.8 13.0 W 15.9 0.0 3.4
15:04 19.0 12.7 67 1016.8 12.1 SW 15.9 0.0 3.4
15:05 19.0 12.7 67 1016.7 9.2 S 15.9 0.0 3.4
15:07 18.9 12.9 68 1016.6 9.8 NNW 15.9 0.0 3.4
15:08 18.9 13.1 69 1016.6 9.8 SW 14.5 0.0 3.4
15:10 19.1 13.5 70 1016.7 13.6 WSW 13.6 0.0 3.4
15:11 19.1 13.3 69 1016.9 15.2 S 15.2 0.0 3.4
15:12 19.0 13.0 68 1016.8 10.7 NW 15.2 0.0 3.4
15:13 18.9 12.9 68 1016.8 10.7 WSW 15.2 0.0 3.4
15:14 18.9 13.1 69 1016.9 10.7 WSW 15.2 0.0 3.4
15:15 18.9 13.3 70 1016.8 7.6 SW 15.2 0.0 3.4
15:16 18.9 13.3 70 1016.9 8.3 W 15.2 0.0 3.4
15:17 19.0 13.4 70 1016.9 10.7 W 15.2 0.0 3.4
15:18 19.0 13.2 69 1016.8 7.6 S 15.2 0.0 3.4
15:19 18.9 13.1 69 1016.7 11.4 WSW 15.2 0.0 3.4
15:20 19.0 13.0 68 1016.7 15.2 NW 15.2 0.0 3.4
15:21 19.0 13.0 68 1016.6 13.0 NW 15.2 0.0 3.4
15:22 19.1 13.3 69 1016.8 11.4 NW 15.2 0.0 3.4
15:23 19.1 13.3 69 1016.8 11.4 NW 15.2 0.0 3.4
15:24 19.2 13.2 68 1016.8 8.3 SW 15.2 0.0 3.4
15:25 19.1 12.8 67 1017.0 13.0 W 15.2 0.0 3.4
15:26 19.0 13.0 68 1016.9 13.6 SW 15.2 0.0 3.4
15:27 19.0 13.0 68 1016.9 14.5 NW 15.2 0.0 3.4
15:28 19.1 13.1 68 1016.8 13.6 NW 15.2 0.0 3.4
15:30 19.0 12.7 67 1016.8 13.0 S 15.2 0.0 3.4
15:31 18.9 12.6 67 1016.9 13.0 SW 14.5 0.0 3.4
15:33 18.7 12.5 67 1016.9 11.4 ENE 15.2 0.0 3.4
15:34 18.7 12.2 66 1016.8 8.3 NW 15.2 0.0 3.4
15:35 18.7 12.5 67 1017.0 11.4 W 15.2 0.0 3.4
15:36 18.7 12.5 67 1016.9 10.7 SSW 15.2 0.0 3.4
15:37 18.6 12.1 66 1016.8 13.6 NW 15.2 0.0 3.4
15:38 18.7 12.2 66 1017.0 13.6 S 15.2 0.0 3.4
15:39 18.6 12.1 66 1017.1 13.0 SW 15.2 0.0 3.4
15:40 18.7 12.5 67 1016.9 10.7 NW 15.2 0.0 3.4
15:41 18.7 12.5 67 1017.1 15.9 NW 15.9 0.0 3.4
15:42 18.7 12.2 66 1017.0 12.1 NW 15.9 0.0 3.4
15:43 18.4 11.9 66 1017.1 9.8 NW 15.9 0.0 3.4
15:44 18.4 12.2 67 1017.0 9.2 NW 15.9 0.0 3.4
15:45 18.4 12.2 67 1017.1 11.4 SW 15.9 0.0 3.4
15:46 18.4 12.4 68 1017.1 10.7 NW 15.9 0.0 3.4
15:47 18.5 12.5 68 1017.1 10.7 NW 15.9 0.0 3.4
15:48 18.5 12.7 69 1016.9 10.7 NW 15.9 0.0 3.4
15:49 18.6 12.8 69 1017.1 8.3 SW 15.9 0.0 3.4
15:50 18.8 13.0 69 1016.9 13.0 NW 15.9 0.0 3.4
15:51 18.9 12.9 68 1017.1 18.3 NW 18.3 0.8 3.5
15:52 18.9 12.6 67 1017.0 12.1 SW 18.3 0.8 3.5
15:53 18.9 12.9 68 1017.0 8.3 W 18.3 0.8 3.5
15:54 19.0 13.0 68 1016.9 12.1 SW 18.3 0.8 3.5
15:56 19.0 12.7 67 1016.9 10.7 NW 18.3 0.0 3.5
15:57 19.0 12.7 67 1017.0 12.1 SW 18.3 0.0 3.5
15:58 19.0 12.7 67 1017.0 14.5 W 18.3 0.0 3.5
15:59 18.9 12.4 66 1017.1 13.6 SW 18.3 0.0 3.5
16:00 18.9 12.4 66 1017.0 13.6 W 18.3 0.0 3.5
16:01 18.9 12.2 65 1017.1 11.4 SW 15.9 0.0 3.5
16:02 18.8 12.3 66 1017.2 11.4 NW 15.9 0.0 3.5
16:03 18.8 12.3 66 1017.2 11.4 NW 15.9 0.0 3.5
16:04 18.9 12.2 65 1017.2 12.1 SE 15.9 0.0 3.5
16:05 18.9 12.4 66 1017.1 12.1 NNW 15.9 0.0 3.5
16:06 18.9 12.4 66 1017.1 9.8 W 15.9 0.0 3.5
16:07 18.9 12.4 66 1017.0 12.1 NW 15.9 0.0 3.5
16:08 18.9 12.4 66 1017.0 12.1 NW 15.9 0.0 3.5
16:09 18.9 12.6 67 1017.0 10.7 E 15.9 0.0 3.5
16:10 18.9 12.4 66 1016.9 9.8 WSW 13.6 0.0 3.5
16:11 19.0 12.7 67 1017.1 11.4 NW 12.1 0.0 3.5
16:12 19.0 12.7 67 1017.0 9.2 N 12.1 0.0 3.5
16:13 19.1 12.8 67 1017.2 10.7 NW 12.1 0.0 3.5
16:14 19.2 12.7 66 1017.2 9.8 NW 13.6 0.0 3.5
16:15 19.2 12.7 66 1017.1 6.9 NNW 13.6 0.0 3.5
16:17 19.3 12.8 66 1017.1 13.6 NW 13.6 0.0 3.5
16:18 19.3 12.6 65 1017.1 11.4 N 13.6 0.0 3.5
16:19 19.3 12.8 66 1017.1 11.4 SW 13.6 0.0 3.5
16:20 19.4 12.9 66 1017.1 13.0 NW 13.6 0.0 3.5
16:21 19.4 12.9 66 1017.3 14.5 NW 14.5 0.0 3.5
16:22 19.5 13.0 66 1017.1 11.4 NW 14.5 0.0 3.5
16:23 19.5 13.0 66 1017.3 13.6 NE 14.5 0.0 3.5
16:24 19.5 13.0 66 1017.3 13.0 SW 14.5 0.0 3.5
16:25 19.5 13.0 66 1017.3 10.7 W 14.5 0.0 3.5
16:26 19.4 12.7 65 1017.2 9.8 WSW 14.5 0.0 3.5
16:27 19.2 12.5 65 1017.1 11.4 SW 14.5 0.0 3.5
16:28 19.2 12.7 66 1017.2 13.6 NW 14.5 0.0 3.5
16:29 19.1 12.6 66 1017.3 11.4 WNW 14.5 0.0 3.5
16:30 19.0 12.5 66 1017.3 13.0 W 14.5 0.0 3.5
16:31 19.0 12.5 66 1017.2 10.7 W 13.6 0.0 3.5
16:32 18.9 12.4 66 1017.2 9.8 NW 13.6 0.0 3.5
16:33 18.9 12.4 66 1017.3 11.4 WSW 13.6 0.0 3.5
16:34 18.9 12.4 66 1017.2 9.8 NW 13.6 0.0 3.5
16:35 19.0 12.5 66 1017.3 15.9 NW 15.9 0.0 3.5
16:36 19.1 12.8 67 1017.3 8.3 N 15.9 0.0 3.5
16:37 19.1 12.4 65 1017.2 12.1 W 15.9 0.0 3.5
16:38 19.3 12.8 66 1017.1 7.6 NE 15.9 0.0 3.5
16:39 19.3 12.8 66 1017.3 6.9 N 15.9 0.0 3.5
16:40 19.4 12.9 66 1017.3 10.7 SW 15.9 0.0 3.5
16:42 19.4 12.4 64 1017.3 12.1 SE 15.9 0.0 3.5
16:43 19.4 12.2 63 1017.3 8.3 SW 15.9 0.0 3.5
16:44 19.4 12.2 63 1017.4 9.8 S 15.9 0.0 3.5
16:45 19.4 12.2 63 1017.1 12.1 NW 15.2 0.0 3.5
16:46 19.4 12.2 63 1017.1 9.2 NW 15.2 0.0 3.5
16:47 19.4 12.4 64 1017.3 6.9 W 15.2 0.0 3.5
16:48 19.5 12.5 64 1017.3 10.7 N 15.2 0.0 3.5
16:49 19.5 12.3 63 1017.3 12.1 W 15.2 0.0 3.5
16:50 19.5 12.3 63 1017.1 13.0 SW 15.2 0.0 3.5
16:51 19.4 12.2 63 1017.3 11.4 S 13.0 0.0 3.5
16:52 19.3 12.3 64 1017.2 10.7 WSW 13.0 0.0 3.5
16:53 19.3 12.3 64 1017.3 14.5 SW 14.5 0.0 3.5
16:54 19.2 12.2 64 1017.2 8.3 NW 14.5 0.0 3.5
16:55 19.2 12.2 64 1017.2 15.2 WSW 15.2 0.0 3.5
16:56 19.1 12.1 64 1017.4 12.1 SW 15.2 0.0 3.5
16:57 19.1 12.1 64 1017.4 12.1 SW 15.2 0.0 3.5
16:58 18.9 12.0 64 1017.3 13.6 SW 19.0 0.0 3.5
16:59 18.9 12.2 65 1017.3 11.4 W 19.0 0.0 3.5
17:00 18.9 12.2 65 1017.3 10.7 WSW 19.0 0.0 3.5
17:01 18.8 12.1 65 1017.3 9.8 WSW 19.0 0.0 3.5
17:02 18.8 11.9 64 1017.3 15.2 W 19.0 0.0 3.5
17:03 18.8 11.9 64 1017.3 15.2 W 19.0 0.0 3.5
17:05 18.8 12.1 65 1017.3 11.4 W 19.0 0.0 3.5
17:06 18.8 12.1 65 1017.3 11.4 SW 19.0 0.0 3.5
17:08 19.0 12.5 66 1017.3 9.8 SW 15.2 0.0 3.5
17:09 19.0 12.3 65 1017.3 9.8 SW 15.2 0.0 3.5
17:11 19.1 11.7 62 1017.4 10.7 W 15.2 0.0 3.5
17:12 19.1 11.7 62 1017.3 13.0 NNE 15.2 0.0 3.5
17:13 19.2 12.0 63 1017.4 11.4 NW 15.2 0.0 3.5
17:14 19.2 12.0 63 1017.4 5.4 SW 13.0 0.0 3.5
17:15 19.2 12.0 63 1017.5 10.7 NNE 13.0 0.0 3.5
17:16 19.2 12.0 63 1017.4 11.4 SW 13.0 0.0 3.5
17:17 19.1 11.9 63 1017.5 13.0 W 13.0 0.0 3.5
17:18 19.0 11.8 63 1017.4 13.0 N 13.0 0.0 3.5
17:19 18.9 12.0 64 1017.5 9.8 SW 13.0 0.0 3.5
17:20 18.8 11.9 64 1017.4 5.4 SW 13.0 0.0 3.5
17:21 18.8 12.1 65 1017.5 6.0 W 13.0 0.0 3.5
17:22 18.8 12.1 65 1017.4 13.0 W 13.0 0.0 3.5
17:23 18.8 12.1 65 1017.4 10.7 NW 13.0 0.0 3.5
17:24 18.8 12.1 65 1017.4 12.1 WNW 13.0 0.0 3.5
17:25 18.8 12.1 65 1017.4 9.2 S 13.0 0.0 3.5
17:26 18.7 12.0 65 1017.6 8.3 NE 13.0 0.0 3.5
17:27 18.7 12.2 66 1017.3 7.6 NNW 13.0 0.0 3.5
17:28 18.8 12.3 66 1017.2 10.7 NNW 13.0 0.0 3.5
17:30 18.9 12.4 66 1017.5 8.3 NW 13.0 0.0 3.5
17:31 18.9 12.4 66 1017.3 13.6 WSW 13.6 0.0 3.5
17:32 18.8 12.1 65 1017.4 10.7 WNW 13.6 0.0 3.5
17:33 18.9 12.2 65 1017.4 11.4 NW 13.6 0.0 3.5
17:34 18.8 12.1 65 1017.4 11.4 SW 13.6 0.0 3.5
17:35 18.7 12.0 65 1017.3 12.1 NW 13.6 0.0 3.5
17:36 18.7 12.0 65 1017.4 11.4 NW 13.6 0.0 3.5
17:37 18.6 11.9 65 1017.4 9.8 W 13.6 0.0 3.5
17:38 18.6 11.9 65 1017.4 13.0 NW 13.6 0.0 3.5
17:39 18.5 12.0 66 1017.4 13.6 NW 13.6 0.0 3.5
17:40 18.5 12.0 66 1017.4 13.6 NW 13.6 0.0 3.5
17:41 18.4 11.9 66 1017.4 13.0 NW 13.6 0.0 3.5
17:42 18.4 12.2 67 1017.5 17.4 SE 17.4 0.0 3.5
17:43 18.4 12.2 67 1017.4 13.0 SE 17.4 0.0 3.5
17:44 18.4 12.2 67 1017.4 8.3 NW 17.4 0.0 3.5
17:45 18.4 12.2 67 1017.3 7.6 NW 17.4 0.0 3.5
17:46 18.4 12.2 67 1017.4 9.2 SW 17.4 0.0 3.5
17:47 18.4 12.2 67 1017.4 9.2 W 17.4 0.0 3.5
17:49 18.4 12.2 67 1017.4 13.6 SW 17.4 0.0 3.5
17:50 18.3 12.1 67 1017.6 12.1 NW 17.4 0.0 3.5
17:51 18.3 11.8 66 1017.5 10.7 SE 17.4 0.0 3.5
17:52 18.3 11.8 66 1017.6 9.2 SE 13.6 0.0 3.5
17:53 18.3 12.1 67 1017.5 8.3 WNW 13.6 0.0 3.5
17:54 18.3 11.8 66 1017.6 11.4 SW 13.6 0.0 3.5
17:55 18.3 11.8 66 1017.7 9.2 SE 13.6 0.0 3.5
17:56 18.3 11.8 66 1017.6 8.3 SW 13.6 0.0 3.5
17:57 18.4 11.9 66 1017.7 10.7 NW 13.6 0.0 3.5
17:58 18.4 11.9 66 1017.6 13.0 SW 13.6 0.0 3.5
17:59 18.3 11.8 66 1017.5 8.3 NW 13.6 0.0 3.5
18:00 18.3 11.8 66 1017.5 8.3 NW 13.6 0.0 3.5
18:01 18.2 11.8 66 1017.6 12.1 WNW 13.6 0.0 3.5
18:02 18.2 12.0 67 1017.6 8.3 SW 13.0 0.0 3.5
18:03 18.2 12.0 67 1017.4 8.3 SW 13.0 0.0 3.5
18:04 18.2 12.0 67 1017.6 8.3 SW 13.0 0.0 3.5
18:05 18.1 11.9 67 1017.6 14.5 W 14.5 0.0 3.5
18:06 18.1 11.9 67 1017.6 12.1 W 14.5 0.0 3.5
18:08 18.0 12.0 68 1017.7 9.8 S 14.5 0.0 3.5
18:09 18.0 12.0 68 1017.6 6.9 SW 14.5 0.0 3.5
18:10 18.0 12.0 68 1017.5 9.2 WNW 14.5 0.0 3.5
18:11 18.0 12.0 68 1017.6 10.7 SW 14.5 0.0 3.5
18:12 18.0 12.0 68 1017.7 9.8 W 14.5 0.0 3.5
18:13 18.0 12.0 68 1017.5 13.0 NW 14.5 0.0 3.5
18:14 18.1 12.1 68 1017.7 13.0 SW 14.5 0.0 3.5
18:15 18.1 12.1 68 1017.6 13.0 WSW 13.6 0.0 3.5
18:16 18.1 11.9 67 1017.7 10.7 WSW 13.6 0.0 3.5
18:17 18.1 11.9 67 1017.8 8.3 SW 13.0 0.0 3.5
18:18 18.1 12.1 68 1017.6 9.2 NW 13.0 0.0 3.5
18:19 18.1 12.1 68 1017.6 9.8 SW 13.0 0.0 3.5
18:20 18.1 12.1 68 1017.8 8.3 SW 13.0 0.0 3.5
18:21 18.1 12.1 68 1017.8 11.4 NW 13.0 0.0 3.5
18:22 18.2 12.2 68 1017.7 10.7 SW 13.0 0.0 3.5
18:23 18.2 12.2 68 1017.7 14.5 S 14.5 0.0 3.5
18:24 18.2 12.2 68 1017.8 9.2 N 14.5 0.0 3.5
18:25 18.2 12.2 68 1017.8 9.2 NW 14.5 0.0 3.5
18:27 18.3 12.3 68 1017.8 14.5 WNW 14.5 0.0 3.5
18:28 18.3 12.3 68 1017.8 15.9 SW 15.9 0.0 3.5
18:29 18.3 12.3 68 1017.8 12.1 SW 15.9 0.0 3.5
18:30 18.3 12.3 68 1017.7 10.7 W 15.9 0.0 3.5
18:31 18.3 12.1 67 1017.8 9.8 W 15.9 0.0 3.5
18:32 18.2 12.0 67 1017.9 8.3 S 15.9 0.0 3.5
18:33 18.2 12.0 67 1017.8 11.4 WSW 15.9 0.0 3.5
18:34 18.2 12.0 67 1017.7 15.2 N 15.9 0.0 3.5
18:35 18.2 12.0 67 1017.7 13.6 SW 15.9 0.0 3.5
18:36 18.2 12.0 67 1017.7 12.1 SW 15.9 0.0 3.5
18:37 18.2 12.0 67 1017.8 13.6 W 15.9 0.0 3.5
18:38 18.2 12.0 67 1017.8 9.8 W 15.9 0.0 3.5
18:39 18.2 12.0 67 1017.7 13.6 SW 15.2 0.0 3.5
18:40 18.1 11.9 67 1017.8 11.4 SW 15.2 0.0 3.5
18:41 18.1 11.9 67 1017.8 12.1 NW 16.8 0.0 3.5
18:42 18.1 11.9 67 1017.7 8.3 SW 16.8 0.0 3.5
18:43 18.1 11.9 67 1017.8 13.0 SW 16.8 0.0 3.5
18:44 18.1 11.9 67 1017.6 10.7 SW 16.8 0.0 3.5
18:46 18.0 11.8 67 1017.8 6.0 SW 16.8 0.0 3.5
18:47 18.0 12.0 68 1017.8 10.7 WNW 16.8 0.0 3.5
18:48 18.0 12.0 68 1017.8 8.3 SW 16.8 0.0 3.5
18:49 18.0 12.0 68 1017.7 10.7 W 16.8 0.0 3.5
18:50 18.0 12.0 68 1017.8 11.4 N 16.8 0.0 3.5
18:51 18.0 12.0 68 1017.8 9.2 NW 13.0 0.0 3.5
18:52 18.0 12.0 68 1017.8 12.1 SW 13.0 0.0 3.5
18:53 18.0 12.0 68 1017.7 11.4 SW 12.1 0.0 3.5
18:54 17.9 11.9 68 1017.8 16.8 SW 16.8 0.0 3.5
18:55 17.9 11.9 68 1017.8 8.3 W 16.8 0.0 3.5
18:56 17.9 11.9 68 1017.8 8.3 W 16.8 0.0 3.5
18:57 17.9 12.1 69 1017.8 12.1 SW 16.8 0.0 3.5
18:58 17.8 12.0 69 1017.7 7.6 NW 16.8 0.0 3.5
18:59 17.9 12.1 69 1017.8 10.7 W 16.8 0.0 3.5
19:00 17.9 12.1 69 1017.8 9.8 W 16.8 0.0 3.5
19:01 17.9 12.1 69 1017.7 6.9 SW 16.8 0.0 3.5
19:02 17.9 12.1 69 1017.8 5.4 W 16.8 0.0 3.5
19:03 17.9 12.1 69 1017.9 9.8 SW 16.8 0.0 3.5
19:05 17.9 12.1 69 1017.8 13.0 NW 13.6 0.0 3.5
19:06 17.9 12.1 69 1017.7 11.4 SW 14.5 0.0 3.5
19:07 17.9 12.1 69 1017.6 13.0 SW 14.5 0.0 3.5
19:08 17.8 12.0 69 1017.8 10.7 S 14.5 0.0 3.5
19:10 17.8 12.0 69 1017.9 6.9 NW 14.5 0.0 3.5
19:11 17.8 12.0 69 1017.8 12.1 SW 14.5 0.0 3.5
19:12 17.7 11.9 69 1018.0 9.8 SW 14.5 0.0 3.5
19:13 17.7 11.9 69 1017.9 10.7 SW 14.5 0.0 3.5
19:14 17.7 11.9 69 1017.8 9.8 NW 14.5 0.0 3.5
19:15 17.6 11.9 69 1017.9 13.0 NW 14.5 0.0 3.5
19:16 17.6 11.9 69 1017.9 7.6 SW 13.6 0.0 3.5
19:17 17.6 11.9 69 1017.9 12.1 W 13.6 0.0 3.5
19:18 17.6 11.9 69 1018.1 9.2 SW 13.6 0.0 3.5
19:19 17.5 11.8 69 1017.9 11.4 NW 14.5 0.0 3.5
19:20 17.5 11.8 69 1017.9 11.4 NW 14.5 0.0 3.5
19:21 17.5 11.8 69 1017.9 11.4 NW 14.5 0.0 3.5
19:22 17.4 11.9 70 1018.0 8.3 SW 14.5 0.0 3.5
19:23 17.4 11.9 70 1017.9 7.6 WSW 14.5 0.0 3.5
19:24 17.4 11.9 70 1017.9 7.6 W 14.5 0.0 3.5
19:25 17.3 11.8 70 1017.9 8.3 W 14.5 0.0 3.5
19:26 17.3 11.8 70 1017.9 6.0 NW 14.5 0.0 3.5
19:27 17.2 11.7 70 1017.9 5.4 SW 14.5 0.0 3.5
19:29 17.1 11.6 70 1017.9 5.4 N 14.5 0.0 3.5
19:30 17.0 11.5 70 1017.8 6.9 SW 11.4 0.0 3.5
19:31 17.0 11.7 71 1017.8 6.9 W 8.3 0.0 3.5
19:32 16.9 11.6 71 1018.0 6.9 SW 8.3 0.0 3.5
19:33 16.9 11.6 71 1017.9 8.3 SW 8.3 0.0 3.5
19:34 16.9 11.6 71 1018.0 6.9 SW 8.3 0.0 3.5
19:35 17.0 11.7 71 1018.0 5.4 WNW 8.3 0.0 3.5
19:36 17.0 11.9 72 1018.0 5.4 W 8.3 0.0 3.5
19:37 17.0 11.9 72 1017.9 9.2 SW 9.2 0.0 3.5
19:38 17.0 11.9 72 1018.1 5.4 SW 9.2 0.0 3.5
19:39 17.0 11.9 72 1017.9 7.6 W 9.2 0.0 3.5
19:40 17.0 11.9 72 1018.0 8.3 SW 9.2 0.0 3.5
19:41 17.0 11.9 72 1018.0 7.6 W 9.2 0.0 3.5
19:42 17.0 11.9 72 1018.1 9.2 W 9.2 0.0 3.5
19:43 17.0 11.9 72 1018.0 6.9 NW 9.2 0.0 3.5
19:44 17.0 11.9 72 1017.9 6.9 S 9.2 0.0 3.5
19:45 17.0 11.9 72 1018.1 7.6 WSW 9.2 0.0 3.5
19:46 17.0 11.9 72 1018.1 6.0 W 9.2 0.0 3.5
19:47 17.0 11.9 72 1018.2 4.5 W 9.2 0.0 3.5
19:48 17.0 11.9 72 1018.3 8.3 WSW 9.2 0.0 3.5
19:49 17.0 11.9 72 1018.2 6.9 SW 9.2 0.0 3.5
19:50 16.9 11.8 72 1018.1 6.9 W 9.2 0.0 3.5
19:51 16.8 11.7 72 1018.2 9.8 W 12.1 0.0 3.5
19:52 16.8 11.7 72 1018.3 5.4 WSW 12.1 0.0 3.5
19:53 16.8 11.7 72 1018.2 7.6 NW 12.1 0.0 3.5
19:54 16.7 11.6 72 1018.3 6.9 NW 12.1 0.0 3.5
19:55 16.6 11.5 72 1018.3 3.1 W 12.1 0.0 3.5
19:56 16.6 11.5 72 1018.3 8.3 NW 12.1 0.0 3.5
19:57 16.6 11.5 72 1018.3 8.3 NW 12.1 0.0 3.5
19:58 16.5 11.4 72 1018.2 5.4 W 12.1 0.0 3.5
19:59 16.5 11.4 72 1018.4 6.0 W 12.1 0.0 3.5
20:00 16.4 11.3 72 1018.4 7.6 W 12.1 0.0 3.5
20:01 16.4 11.3 72 1018.2 6.0 W 12.1 0.0 3.5
20:02 16.4 11.3 72 1018.2 3.8 SW 8.3 0.0 3.5
20:03 16.4 11.3 72 1018.3 5.4 SW 8.3 0.0 3.5
20:04 16.4 11.3 72 1018.4 5.4 SW 8.3 0.0 3.5
20:05 16.3 11.3 72 1018.3 8.3 W 8.3 0.0 3.5
20:06 16.3 11.3 72 1018.3 7.6 SW 8.3 0.0 3.5
20:07 16.2 11.4 73 1018.4 6.0 WSW 8.3 0.0 3.5
20:08 16.2 11.2 72 1018.4 4.5 NW 8.3 0.0 3.5
20:09 16.2 11.4 73 1018.3 6.9 W 8.3 0.0 3.5
20:10 16.2 11.4 73 1018.4 5.4 W 8.3 0.0 3.5
20:11 16.2 11.4 73 1018.2 7.6 W 8.3 0.0 3.5
20:12 16.1 11.3 73 1018.4 4.5 W 8.3 0.0 3.5
20:13 16.1 11.3 73 1018.4 5.4 SW 8.3 0.0 3.5
20:14 16.1 11.3 73 1018.3 9.2 NW 9.2 0.0 3.5
20:15 16.0 11.2 73 1018.4 5.4 NW 9.8 0.0 3.5
20:16 16.0 11.2 73 1018.4 5.4 NW 9.8 0.0 3.5
20:17 16.0 11.2 73 1018.4 6.0 NW 9.8 0.0 3.5
20:18 16.0 11.2 73 1018.4 6.0 W 9.8 0.0 3.5
20:19 15.9 11.1 73 1018.5 4.5 SW 9.8 0.0 3.5
20:20 15.9 11.1 73 1018.4 6.0 NW 9.8 0.0 3.5
20:21 15.9 11.1 73 1018.6 7.6 W 9.8 0.0 3.5
20:22 15.8 11.0 73 1018.6 7.6 W 9.8 0.0 3.5
20:23 15.8 11.0 73 1018.4 6.9 W 9.8 0.0 3.5
20:24 15.8 11.0 73 1018.6 7.6 WSW 9.8 0.0 3.5
20:25 15.7 11.1 74 1018.6 6.9 SW 8.3 0.0 3.5
20:26 15.7 11.1 74 1018.5 6.0 W 8.3 0.0 3.5
20:27 15.6 11.0 74 1018.6 5.4 SW 7.6 0.0 3.5
20:28 15.6 11.0 74 1018.6 7.6 WSW 7.6 0.0 3.5
20:29 15.5 10.9 74 1018.6 8.3 NW 8.3 0.0 3.5
20:30 15.5 10.9 74 1018.5 3.8 N 8.3 0.0 3.5
20:31 15.4 10.8 74 1018.6 3.8 SW 8.3 0.0 3.5
20:32 15.4 10.8 74 1018.5 5.4 SW 8.3 0.0 3.5
20:33 15.4 10.8 74 1018.7 5.4 NW 8.3 0.0 3.5
20:34 15.3 10.7 74 1018.6 6.0 W 8.3 0.0 3.5
20:35 15.3 10.7 74 1018.6 4.5 W 8.3 0.0 3.5
20:36 15.3 10.7 74 1018.5 6.0 W 8.3 0.0 3.5
20:37 15.3 10.7 74 1018.5 6.0 W 8.3 0.0 3.5
20:38 15.2 10.8 75 1018.6 7.6 WNW 8.3 0.0 3.5
20:39 15.2 10.8 75 1018.6 6.0 W 8.3 0.0 3.5
20:40 15.2 10.8 75 1018.7 3.1 S 7.6 0.0 3.5
20:41 15.2 10.8 75 1018.7 3.1 SW 7.6 0.0 3.5
20:42 15.1 10.7 75 1018.7 5.4 SW 7.6 0.0 3.5
20:43 15.1 10.7 75 1018.6 3.8 NW 7.6 0.0 3.5
20:44 15.1 10.7 75 1018.7 4.5 W 7.6 0.0 3.5
20:45 15.0 10.6 75 1018.6 5.4 SW 7.6 0.0 3.5
20:46 15.0 10.8 76 1018.7 4.5 WSW 7.6 0.0 3.5
20:47 15.0 10.8 76 1018.8 5.4 SW 7.6 0.0 3.5
20:48 15.0 10.8 76 1018.8 4.5 W 6.0 0.0 3.5
20:49 15.0 10.8 76 1018.7 4.5 W 5.4 0.0 3.5
20:50 14.9 10.7 76 1018.8 5.4 NW 5.4 0.0 3.5
20:51 14.9 10.7 76 1018.8 5.4 S 5.4 0.0 3.5
20:52 14.9 10.7 76 1018.8 4.5 W 5.4 0.0 3.5
20:54 14.8 10.6 76 1018.8 5.4 W 5.4 0.0 3.5
20:55 14.8 10.6 76 1018.9 5.4 W 5.4 0.0 3.5
20:56 14.8 10.6 76 1019.0 4.5 SW 5.4 0.0 3.5
20:57 14.8 10.8 77 1018.9 4.5 WSW 5.4 0.0 3.5
20:58 14.7 10.7 77 1018.8 4.5 W 5.4 0.0 3.5
20:59 14.7 10.7 77 1019.0 3.8 W 5.4 0.0 3.5
21:00 14.7 10.7 77 1018.9 4.5 W 5.4 0.0 3.5
21:01 14.6 10.6 77 1019.0 4.5 SW 5.4 0.0 3.5
21:02 14.6 10.6 77 1018.9 3.8 W 5.4 0.0 3.5
21:03 14.6 10.6 77 1018.9 3.8 W 5.4 0.0 3.5
21:04 14.5 10.5 77 1018.8 6.9 WSW 6.9 0.0 3.5
21:05 14.5 10.5 77 1018.9 5.4 W 6.9 0.0 3.5
21:06 14.5 10.7 78 1018.9 3.8 S 6.9 0.0 3.5
21:07 14.5 10.7 78 1018.9 3.8 S 6.9 0.0 3.5
21:08 14.5 10.7 78 1019.0 4.5 SW 6.9 0.0 3.5
21:09 14.4 10.6 78 1018.9 5.4 SW 6.9 0.0 3.5
21:10 14.4 10.6 78 1018.9 5.4 NW 6.9 0.0 3.5
21:11 14.4 10.6 78 1018.9 3.8 SW 6.9 0.0 3.5
21:12 14.4 10.6 78 1018.9 4.5 N 6.9 0.0 3.5
21:13 14.3 10.5 78 1019.0 5.4 SW 6.9 0.0 3.5
21:14 14.3 10.5 78 1018.9 3.8 SW 6.9 0.0 3.5
21:15 14.3 10.5 78 1018.9 5.4 SW 6.9 0.0 3.5
21:16 14.3 10.5 78 1019.1 4.5 N 6.9 0.0 3.5
21:17 14.2 10.4 78 1018.9 4.5 WSW 6.9 0.0 3.5
21:18 14.2 10.6 79 1018.9 6.0 W 6.9 0.0 3.5
21:19 14.2 10.6 79 1019.1 5.4 NW 6.0 0.0 3.5
21:20 14.2 10.6 79 1019.0 3.1 W 6.0 0.0 3.5
21:22 14.1 10.5 79 1019.0 4.5 SW 6.0 0.0 3.5
21:23 14.1 10.5 79 1019.2 4.5 SW 6.0 0.0 3.5
21:24 14.1 10.5 79 1019.1 4.5 W 6.0 0.0 3.5
21:25 14.0 10.4 79 1019.0 4.5 SW 6.0 0.0 3.5
21:26 14.0 10.4 79 1019.1 5.4 SW 6.0 0.0 3.5
21:27 14.0 10.4 79 1019.2 4.5 NW 6.9 0.0 3.5
21:28 14.0 10.4 79 1019.2 4.5 NW 6.9 0.0 3.5
21:29 14.0 10.4 79 1019.2 4.5 W 6.9 0.0 3.5
21:30 14.0 10.4 79 1019.2 3.8 NW 6.9 0.0 3.5
21:31 13.9 10.5 80 1019.1 5.4 W 6.9 0.0 3.5
21:32 13.9 10.5 80 1019.0 4.5 W 6.9 0.0 3.5
21:33 13.9 10.5 80 1019.0 6.0 W 6.9 0.0 3.5
21:34 13.9 10.5 80 1019.1 3.1 NW 6.9 0.0 3.5
21:35 13.9 10.5 80 1019.1 3.8 SW 6.9 0.0 3.5
21:36 13.9 10.5 80 1019.1 3.1 W 6.9 0.0 3.5
21:37 13.9 10.5 80 1019.1 4.5 W 6.0 0.0 3.5
21:38 13.9 10.5 80 1019.1 3.8 SW 6.0 0.0 3.5
21:39 13.8 10.4 80 1019.0 6.9 WSW 6.9 0.0 3.5
21:40 13.8 10.4 80 1019.1 6.0 W 6.9 0.0 3.5
21:41 13.8 10.4 80 1019.2 4.5 NW 6.9 0.0 3.5
21:43 13.8 10.6 81 1019.2 5.4 WSW 6.9 0.0 3.5
21:44 13.8 10.6 81 1019.1 3.8 W 6.9 0.0 3.5
21:45 13.8 10.6 81 1019.3 4.5 WSW 6.9 0.0 3.5
21:46 13.8 10.6 81 1019.3 4.5 SE 6.9 0.0 3.5
21:47 13.8 10.6 81 1019.1 5.4 SW 6.9 0.0 3.5
21:48 13.8 10.6 81 1019.3 4.5 W 6.9 0.0 3.5
21:49 13.8 10.6 81 1019.3 3.8 WSW 6.9 0.0 3.5
21:50 13.8 10.6 81 1019.3 3.8 WNW 6.0 0.0 3.5
21:51 13.8 10.6 81 1019.2 5.4 SW 6.0 0.0 3.5
21:52 13.8 10.6 81 1019.3 4.5 SW 6.0 0.0 3.5
21:53 13.8 10.6 81 1019.3 3.8 W 5.4 0.0 3.5
21:54 13.8 10.6 81 1019.3 3.8 W 5.4 0.0 3.5
21:55 13.8 10.6 81 1019.3 6.9 SW 6.9 0.0 3.5
21:56 13.8 10.6 81 1019.4 6.0 W 6.9 0.0 3.5
21:57 13.8 10.6 81 1019.4 6.9 SW 6.9 0.0 3.5
21:58 13.8 10.8 82 1019.4 5.4 SW 6.9 0.0 3.5
21:59 13.8 10.8 82 1019.3 5.4 W 6.9 0.0 3.5
22:00 13.8 10.8 82 1019.3 4.5 W 6.9 0.0 3.5
22:01 13.8 10.8 82 1019.3 3.1 SW 6.9 0.0 3.5
22:02 13.8 10.8 82 1019.4 3.8 SW 6.9 0.0 3.5
22:03 13.8 10.8 82 1019.3 3.8 W 6.9 0.0 3.5
22:04 13.8 10.8 82 1019.3 3.8 W 6.9 0.0 3.5
22:05 13.8 10.8 82 1019.4 5.4 S 6.9 0.0 3.5
22:06 13.8 10.8 82 1019.3 6.0 SW 6.9 0.0 3.5
22:07 13.7 10.7 82 1019.4 6.0 W 6.9 0.0 3.5
22:08 13.7 10.7 82 1019.5 3.8 W 6.9 0.0 3.5
22:09 13.7 10.7 82 1019.4 5.4 W 6.0 0.0 3.5
22:10 13.7 10.7 82 1019.4 3.8 W 6.0 0.0 3.5
22:11 13.7 10.7 82 1019.4 5.4 W 6.0 0.0 3.5
22:12 13.7 10.7 82 1019.4 3.1 W 6.0 0.0 3.5
22:14 13.7 10.7 82 1019.4 5.4 S 6.0 0.0 3.5
22:15 13.6 10.6 82 1019.5 3.8 SW 6.0 0.0 3.5
22:16 13.6 10.6 82 1019.3 3.8 W 6.0 0.0 3.5
22:17 13.6 10.6 82 1019.4 5.4 SW 6.0 0.0 3.5
22:18 13.6 10.6 82 1019.5 4.5 W 5.4 0.0 3.5
22:19 13.6 10.6 82 1019.5 3.8 W 5.4 0.0 3.5
22:20 13.6 10.6 82 1019.5 4.5 W 5.4 0.0 3.5
22:21 13.6 10.6 82 1019.5 4.5 W 5.4 0.0 3.5
22:22 13.6 10.6 82 1019.5 2.2 SW 5.4 0.0 3.5
22:23 13.6 10.8 83 1019.5 5.4 W 5.4 0.0 3.5
22:24 13.6 10.8 83 1019.6 5.4 SW 5.4 0.0 3.5
22:25 13.5 10.7 83 1019.4 3.1 W 5.4 0.0 3.5
22:26 13.6 10.8 83 1019.5 4.5 SW 5.4 0.0 3.5
22:27 13.6 10.8 83 1019.5 3.8 W 5.4 0.0 3.5
22:28 13.5 10.7 83 1019.4 5.4 W 5.4 0.0 3.5
22:29 13.5 10.7 83 1019.5 4.5 SW 5.4 0.0 3.5
22:30 13.5 10.7 83 1019.6 3.1 SW 5.4 0.0 3.5
22:31 13.5 10.7 83 1019.5 3.1 W 5.4 0.0 3.5
22:32 13.5 10.7 83 1019.6 3.1 W 5.4 0.0 3.5
22:33 13.5 10.7 83 1019.6 3.1 W 5.4 0.0 3.5
22:34 13.5 10.7 83 1019.6 4.5 SW 5.4 0.0 3.5
22:35 13.5 10.7 83 1019.6 3.8 W 5.4 0.0 3.5
22:36 13.5 10.7 83 1019.6 6.0 W 6.9 0.0 3.5
22:37 13.5 10.7 83 1019.7 5.4 S 6.9 0.0 3.5
22:39 13.6 10.8 83 1019.7 3.1 W 6.9 0.0 3.5
22:40 13.5 10.7 83 1019.7 6.0 W 6.9 0.0 3.5
22:41 13.6 10.8 83 1019.6 5.4 NW 6.9 0.0 3.5
22:42 13.6 10.8 83 1019.6 6.0 W 6.9 0.0 3.5
22:43 13.6 10.8 83 1019.6 5.4 SW 6.9 0.0 3.5
22:44 13.5 10.9 84 1019.6 5.4 NW 6.9 0.0 3.5
22:45 13.6 11.0 84 1019.6 6.0 WSW 6.9 0.0 3.5
22:46 13.6 11.0 84 1019.6 5.4 SW 6.9 0.0 3.5
22:47 13.6 11.0 84 1019.6 4.5 W 6.0 0.0 3.5
22:48 13.6 11.0 84 1019.6 6.9 SW 6.9 0.0 3.5
22:49 13.6 11.0 84 1019.7 4.5 NW 6.9 0.0 3.5
22:50 13.6 11.0 84 1019.7 3.1 W 6.9 0.0 3.5
22:51 13.6 11.0 84 1019.6 3.1 W 6.9 0.0 3.5
22:52 13.6 11.0 84 1019.7 3.8 W 6.9 0.0 3.5
22:53 13.6 11.0 84 1019.7 3.8 W 6.9 0.0 3.5
22:54 13.6 11.0 84 1019.6 6.0 W 6.9 0.0 3.5
22:55 13.7 11.1 84 1019.7 5.4 SW 6.9 0.0 3.5
22:56 13.7 11.1 84 1019.7 6.9 NW 6.9 0.0 3.5
22:57 13.7 11.1 84 1019.8 4.5 W 6.9 0.0 3.5
22:58 13.7 11.1 84 1019.7 3.8 SW 6.9 0.0 3.5
22:59 13.7 11.1 84 1019.6 3.1 W 6.9 0.0 3.5
23:00 13.7 11.1 84 1019.7 6.0 SW 6.9 0.0 3.5
23:01 13.7 11.1 84 1019.7 3.8 NW 6.9 0.0 3.5
23:02 13.7 11.1 84 1019.7 4.5 SW 6.9 0.0 3.5
23:03 13.7 11.1 84 1019.7 4.5 NW 6.9 0.0 3.5
23:04 13.7 11.1 84 1019.9 4.5 SW 6.9 0.0 3.5
23:05 13.7 11.1 84 1019.6 4.5 SW 6.9 0.0 3.5
23:07 13.7 11.1 84 1019.7 4.5 SW 6.9 0.0 3.5
23:08 13.7 11.1 84 1019.8 4.5 SW 6.0 0.0 3.5
23:09 13.7 11.1 84 1019.8 4.5 SW 6.0 0.0 3.5
23:10 13.6 11.0 84 1019.7 3.8 SW 6.0 0.0 3.5
23:11 13.6 11.0 84 1019.8 4.5 SW 4.5 0.0 3.5
23:12 13.6 11.0 84 1019.6 4.5 W 4.5 0.0 3.5
23:13 13.6 11.0 84 1019.6 4.5 W 4.5 0.0 3.5
23:14 13.6 11.0 84 1019.8 5.4 SW 5.4 0.0 3.5
23:15 13.6 11.0 84 1019.6 5.4 W 5.4 0.0 3.5
23:16 13.6 11.0 84 1019.8 5.4 SW 5.4 0.0 3.5
23:17 13.5 10.9 84 1019.8 5.4 SW 5.4 0.0 3.5
23:18 13.5 10.9 84 1019.8 5.4 SW 5.4 0.0 3.5
23:20 13.6 11.0 84 1019.7 5.4 SW 5.4 0.0 3.5
23:21 13.5 10.9 84 1019.7 3.8 WNW 5.4 0.0 3.5
23:23 13.5 10.9 84 1019.8 3.8 SW 5.4 0.0 3.5
23:24 13.5 10.9 84 1019.9 4.5 SW 5.4 0.0 3.5
23:25 13.5 10.9 84 1019.8 3.8 W 5.4 0.0 3.5
23:26 13.5 10.9 84 1019.8 3.8 SW 5.4 0.0 3.5
23:27 13.5 10.9 84 1019.8 4.5 S 5.4 0.0 3.5
23:28 13.5 10.9 84 1019.8 2.2 W 5.4 0.0 3.5
23:29 13.5 11.0 85 1019.8 4.5 SW 5.4 0.0 3.5
23:30 13.4 10.8 84 1019.8 3.8 W 5.4 0.0 3.5
23:31 13.4 10.9 85 1019.9 2.2 W 5.4 0.0 3.5
23:32 13.4 10.8 84 1019.8 3.8 W 5.4 0.0 3.5
23:33 13.4 10.8 84 1019.8 3.8 W 5.4 0.0 3.5
23:34 13.4 10.9 85 1019.8 4.5 W 5.4 0.0 3.5
23:35 13.4 10.9 85 1019.9 3.1 W 5.4 0.0 3.5
23:36 13.4 10.9 85 1019.9 3.1 SW 5.4 0.0 3.5
23:37 13.4 10.9 85 1019.8 3.8 W 5.4 0.0 3.5
23:38 13.4 10.9 85 1019.9 2.2 W 5.4 0.0 3.5
23:39 13.4 10.9 85 1019.8 2.2 SW 5.4 0.0 3.5
23:40 13.4 10.9 85 1019.8 1.6 W 5.4 0.0 3.5
23:41 13.4 10.9 85 1019.9 1.6 W 5.4 0.0 3.5
23:42 13.4 10.9 85 1019.9 1.6 W 5.4 0.0 3.5
23:43 13.4 10.9 85 1020.0 0.0 WSW 5.4 0.0 3.5
23:44 13.4 10.9 85 1019.9 1.6 SE 4.5 0.0 3.5
23:45 13.4 10.9 85 1019.9 1.6 SE 3.8 0.0 3.5
23:46 13.4 10.9 85 1020.0 2.2 SW 3.8 0.0 3.5
23:47 13.4 10.9 85 1020.1 2.2 NW 3.8 0.0 3.5
23:48 13.4 10.9 85 1019.9 2.2 NW 3.1 0.0 3.5
23:49 13.4 10.9 85 1020.0 3.8 NNW 3.8 0.0 3.5
23:51 13.4 10.9 85 1019.9 4.5 SW 6.0 0.0 3.5
23:52 13.4 10.9 85 1020.0 6.0 NW 6.0 0.0 3.5
23:53 13.4 10.9 85 1020.0 5.4 SW 6.0 0.0 3.5
23:54 13.5 11.0 85 1020.1 4.5 W 6.0 0.0 3.5
23:55 13.5 11.0 85 1019.9 3.8 W 6.0 0.0 3.5
23:56 13.5 11.2 86 1020.0 6.0 NW 6.0 0.0 3.5
23:57 13.5 11.2 86 1020.1 4.5 SW 6.0 0.0 3.5
23:58 13.5 11.2 86 1019.9 3.8 W 6.0 0.0 3.5
23:59 13.5 11.2 86 1020.0 3.8 SW 6.0 0.0 3.5

UK - WEATHER STATION TOPSITES - UK World Weather Websites

This is a private weather station, never base important decisions or events on data from this weather station. Although every effort has been made to make the data as accurate as possible it does not meet MetOffice standards. It is proved as a guide of local weather conditions. We accept no liability for any loss which may arise from use of the data.

Copyright © Carnkie Weather 2009 - 2018.